EW8144 Weather Reports


time (UTC)temp
C
wind
direction
speed
KPH
gust
KPH
rain 1hr
cm
rain 24hr
cm
rain mn
cm
humidity
%
barometer
mb
20260507065017 13 243 12.9 19.3 0.00 0.00 0.00 71 1012.9
20260507064909 13 262 14.5 24.1 0.00 0.00 0.00 72 1012.9
20260507064752 13 237 12.9 24.1 0.00 0.00 0.00 72 1012.9
20260507064633 13 265 12.9 24.1 0.00 0.00 0.00 71 1013.0
20260507064558 13 268 12.9 24.1 0.00 0.00 0.00 72 1012.1
20260507064522 13 276 14.5 24.1 0.00 0.00 0.00 72 1013.0
20260507064345 13 263 12.9 24.1 0.00 0.00 0.00 71 1013.0
20260507064226 13 227 14.5 24.1 0.00 0.00 0.00 71 1013.0
20260507064129 13 238 14.5 22.5 0.00 0.00 0.00 72 1012.9
20260507064028 13 261 16.1 20.9 0.00 0.00 0.00 72 1013.0
20260507064005 13 246 16.1 20.9 0.00 0.00 0.00 72 1012.1
20260507063922 13 249 16.1 20.9 0.00 0.00 0.00 72 1013.0
20260507063825 13 251 16.1 20.9 0.00 0.00 0.00 72 1012.9
20260507063711 13 253 16.1 20.9 0.00 0.00 0.00 72 1012.9
20260507063637 13 243 14.5 20.9 0.00 0.00 0.00 72 1012.1
20260507063604 13 229 14.5 20.9 0.00 0.00 0.00 72 1013.0
20260507063504 13 261 16.1 20.9 0.00 0.00 0.00 72 1012.9
20260507063347 13 251 12.9 19.3 0.00 0.00 0.00 72 1012.9
20260507063250 13 257 12.9 19.3 0.00 0.00 0.00 73 1012.9
20260507063152 13 265 14.5 19.3 0.00 0.00 0.00 72 1012.9
20260507063127 13 255 14.5 19.3 0.00 0.00 0.00 72 1012.0
20260507063047 13 258 14.5 19.3 0.00 0.00 0.00 72 1012.9
20260507062950 13 253 14.5 19.3 0.00 0.00 0.00 72 1012.9
20260507062831 13 248 14.5 20.9 0.00 0.00 0.00 72 1012.9
20260507062735 13 274 14.5 20.9 0.00 0.00 0.00 72 1012.9
20260507062650 13 279 14.5 20.9 0.00 0.00 0.00 72 1012.0
20260507062544 13 258 12.9 20.9 0.00 0.00 0.00 73 1012.9
20260507062447 13 243 12.9 20.9 0.00 0.00 0.00 73 1012.9
20260507062335 13 261 12.9 20.9 0.00 0.00 0.00 73 1012.9
20260507062225 13 258 14.5 20.9 0.00 0.00 0.00 73 1012.9
20260507062106 13 273 14.5 20.9 0.00 0.00 0.00 73 1012.8
20260507062003 13 268 14.5 19.3 0.00 0.00 0.00 73 1012.7
20260507061845 13 261 14.5 19.3 0.00 0.00 0.00 73 1012.7
20260507061716 13 276 16.1 20.9 0.00 0.00 0.00 72 1012.7
20260507061555 13 281 14.5 20.9 0.00 0.00 0.00 73 1012.7
20260507061503 13 272 14.5 20.9 0.00 0.00 0.00 73 1012.7
20260507061406 13 266 14.5 20.9 0.00 0.00 0.00 72 1012.8
20260507061301 13 276 16.1 20.9 0.00 0.00 0.00 72 1012.8
20260507061202 13 263 16.1 20.9 0.00 0.00 0.00 73 1012.7
20260507061041 13 255 14.5 20.9 0.00 0.00 0.00 73 1012.7
20260507060913 13 276 14.5 17.7 0.00 0.00 0.00 74 1012.7
20260507060819 13 245 11.3 17.7 0.00 0.00 0.00 74 1012.6
20260507060700 13 255 11.3 17.7 0.00 0.00 0.00 74 1012.6
20260507060559 13 274 12.9 17.7 0.00 0.00 0.00 74 1012.6
20260507060527 13 283 12.9 17.7 0.00 0.00 0.00 74 1011.8
20260507060452 13 263 12.9 17.7 0.00 0.00 0.00 74 1012.6
20260507060355 13 270 12.9 17.7 0.00 0.00 0.00 74 1012.6
20260507060257 13 271 12.9 17.7 0.00 0.00 0.00 74 1012.6
20260507060120 13 268 11.3 17.7 0.00 0.00 0.00 74 1012.6
20260507060004 13 312 9.7 16.1 0.00 0.00 0.00 74 1012.5
20260507055854 13 287 8.0 16.1 0.00 0.00 0.00 74 1012.5
20260507055755 13 270 8.0 16.1 0.00 0.00 0.00 74 1012.5
20260507055636 13 280 11.3 16.1 0.00 0.00 0.00 74 1012.5
20260507055606 13 266 9.7 17.7 0.00 0.00 0.00 75 1011.6
20260507055505 13 268 9.7 17.7 0.00 0.00 0.00 75 1012.5
20260507055408 13 251 9.7 17.7 0.00 0.00 0.00 75 1012.5
20260507055316 13 288 9.7 17.7 0.00 0.00 0.00 75 1012.5
20260507055218 13 271 9.7 17.7 0.00 0.00 0.00 75 1012.5
20260507055148 13 276 9.7 22.5 0.00 0.00 0.00 74 1011.6
20260507055112 13 278 11.3 22.5 0.00 0.00 0.00 74 1012.5
20260507055013 13 292 12.9 22.5 0.00 0.00 0.00 75 1012.5
20260507054915 13 280 14.5 22.5 0.00 0.00 0.00 74 1012.5
20260507054817 13 283 12.9 22.5 0.00 0.00 0.00 75 1012.5
20260507054647 13 274 12.9 22.5 0.00 0.00 0.00 75 1012.4
20260507054551 13 290 14.5 22.5 0.00 0.00 0.00 75 1012.5
20260507054433 13 282 14.5 22.5 0.00 0.00 0.00 75 1012.5
20260507054326 13 261 14.5 22.5 0.00 0.00 0.00 75 1012.5
20260507054227 13 278 12.9 19.3 0.00 0.00 0.00 76 1012.5
20260507054130 13 274 11.3 16.1 0.00 0.00 0.00 76 1012.4
20260507054007 13 269 11.3 20.9 0.00 0.00 0.00 76 1012.4
20260507053903 13 248 9.7 20.9 0.00 0.00 0.00 76 1012.4
20260507053806 13 272 11.3 20.9 0.00 0.00 0.00 76 1012.4
20260507053707 13 286 12.9 20.9 0.00 0.00 0.00 76 1012.4
20260507053611 12 278 12.9 20.9 0.00 0.00 0.00 76 1012.4
20260507053546 12 276 11.3 20.9 0.00 0.00 0.00 76 1011.4
20260507053500 12 276 12.9 20.9 0.00 0.00 0.00 76 1012.3
20260507053401 12 274 16.1 20.9 0.00 0.00 0.00 76 1012.3
20260507053309 12 272 16.1 20.9 0.00 0.00 0.00 76 1012.3
20260507053140 12 270 14.5 22.5 0.00 0.00 0.00 76 1012.3
20260507053040 12 280 14.5 22.5 0.00 0.00 0.00 76 1012.3
20260507052918 12 276 12.9 22.5 0.00 0.00 0.00 76 1012.2
20260507052820 12 260 12.9 22.5 0.00 0.00 0.00 76 1012.2
20260507052722 12 247 14.5 22.5 0.00 0.00 0.00 76 1012.2
20260507052636 12 268 14.5 22.5 0.00 0.00 0.00 76 1011.3
20260507052551 12 275 14.5 22.5 0.00 0.00 0.00 76 1012.2
20260507052456 12 278 14.5 22.5 0.00 0.00 0.00 76 1012.2
20260507052359 12 273 14.5 22.5 0.00 0.00 0.00 76 1012.2
20260507052232 12 271 14.5 19.3 0.00 0.00 0.00 76 1012.1
20260507052134 12 259 14.5 19.3 0.00 0.00 0.00 76 1012.1
20260507052035 12 280 12.9 19.3 0.00 0.00 0.00 76 1012.0
20260507052003 12 263 11.3 19.3 0.00 0.00 0.00 76 1011.1
20260507051927 12 272 14.5 19.3 0.00 0.00 0.00 76 1012.0
20260507051813 12 279 14.5 19.3 0.00 0.00 0.00 76 1012.0
20260507051714 12 289 14.5 19.3 0.00 0.00 0.00 76 1012.0
20260507051617 12 270 14.5 19.3 0.00 0.00 0.00 77 1012.0
20260507051540 12 265 14.5 19.3 0.00 0.00 0.00 77 1011.0
20260507051509 12 292 14.5 19.3 0.00 0.00 0.00 77 1012.0
20260507051412 12 295 12.9 19.3 0.00 0.00 0.00 77 1012.0
20260507051314 12 272 12.9 19.3 0.00 0.00 0.00 77 1012.0
20260507051219 12 263 11.3 19.3 0.00 0.00 0.00 77 1012.0
20260507051148 12 260 11.3 19.3 0.00 0.00 0.00 77 1011.0
20260507051109 12 263 12.9 19.3 0.00 0.00 0.00 77 1012.0
20260507050951 12 267 12.9 19.3 0.00 0.00 0.00 77 1012.0
20260507050854 12 261 11.3 16.1 0.00 0.00 0.00 78 1012.0
20260507050756 12 271 11.3 16.1 0.00 0.00 0.00 78 1012.0
20260507050651 12 280 11.3 16.1 0.00 0.00 0.00 78 1012.0
20260507050551 12 261 9.7 16.1 0.00 0.00 0.00 78 1012.0
20260507050458 12 274 9.7 16.1 0.00 0.00 0.00 78 1011.9
20260507050332 12 259 11.3 16.1 0.00 0.00 0.00 78 1011.9
20260507050233 12 253 9.7 16.1 0.00 0.00 0.00 78 1011.9
20260507050135 12 285 9.7 16.1 0.00 0.00 0.00 78 1011.9
20260507050103 12 271 8.0 16.1 0.00 0.00 0.00 78 1011.0
20260507050026 12 278 9.7 16.1 0.00 0.00 0.00 78 1011.9
20260507045928 12 282 11.3 16.1 0.00 0.00 0.00 78 1011.9
20260507045656 12 275 11.3 17.7 0.00 0.00 0.00 78 1011.9
20260507045536 12 273 11.3 17.7 0.00 0.00 0.00 78 1011.9
20260507045438 12 279 12.9 17.7 0.00 0.00 0.00 78 1011.9
20260507045342 12 282 12.9 17.7 0.00 0.00 0.00 78 1011.9
20260507045246 12 284 12.9 17.7 0.00 0.00 0.00 78 1011.9
20260507045139 12 274 12.9 19.3 0.00 0.00 0.00 78 1011.9
20260507045042 12 257 12.9 19.3 0.00 0.00 0.00 79 1011.8
20260507044946 12 282 12.9 19.3 0.00 0.00 0.00 79 1011.8
20260507044839 12 282 12.9 19.3 0.00 0.00 0.00 79 1011.8
20260507044719 12 280 12.9 19.3 0.00 0.00 0.00 79 1011.8
20260507044623 12 280 12.9 19.3 0.00 0.00 0.00 79 1011.7
20260507044524 12 272 14.5 19.3 0.00 0.00 0.00 79 1011.7
20260507044421 12 266 14.5 19.3 0.00 0.00 0.00 79 1011.6
20260507044325 12 265 12.9 19.3 0.00 0.00 0.00 79 1011.7
20260507044225 12 280 11.3 19.3 0.00 0.00 0.00 79 1011.7
20260507044036 11 301 11.3 19.3 0.00 0.00 0.00 79 1010.8
20260507043948 11 257 11.3 19.3 0.00 0.00 0.00 79 1011.6
20260507043850 11 279 12.9 19.3 0.00 0.00 0.00 79 1011.6
20260507043752 11 279 12.9 19.3 0.00 0.00 0.00 79 1011.6
20260507043639 11 276 14.5 19.3 0.00 0.00 0.00 79 1011.6
20260507043613 11 270 14.5 19.3 0.00 0.00 0.00 79 1010.7
20260507043531 11 269 14.5 19.3 0.00 0.00 0.00 79 1011.6
20260507043413 11 265 12.9 17.7 0.00 0.00 0.00 79 1011.6
20260507043317 11 265 12.9 17.7 0.00 0.00 0.00 79 1011.6
20260507043219 11 281 14.5 17.7 0.00 0.00 0.00 79 1011.6
20260507043156 11 274 14.5 17.7 0.00 0.00 0.00 79 1010.7
20260507043112 11 282 14.5 17.7 0.00 0.00 0.00 80 1011.6
20260507043012 11 274 12.9 17.7 0.00 0.00 0.00 80 1011.6
20260507042919 11 267 12.9 16.1 0.00 0.00 0.00 80 1011.6
20260507042813 11 270 12.9 16.1 0.00 0.00 0.00 80 1011.6
20260507042654 11 276 12.9 16.1 0.00 0.00 0.00 80 1011.4
20260507042554 11 272 12.9 16.1 0.00 0.00 0.00 80 1011.5
20260507042456 11 274 12.9 16.1 0.00 0.00 0.00 80 1011.5
20260507042218 11 276 12.9 16.1 0.00 0.00 0.00 80 1011.4
20260507042124 11 273 12.9 16.1 0.00 0.00 0.00 80 1011.4
20260507042052 11 252 11.3 16.1 0.00 0.00 0.00 80 1010.5
20260507042016 11 276 11.3 16.1 0.00 0.00 0.00 80 1011.4
20260507041918 11 269 11.3 16.1 0.00 0.00 0.00 80 1011.4
20260507041820 11 276 9.7 16.1 0.00 0.00 0.00 80 1011.4
20260507041723 11 272 9.7 17.7 0.00 0.00 0.00 80 1011.3
20260507041636 11 265 8.0 17.7 0.00 0.00 0.00 80 1010.5
20260507041534 11 272 11.3 19.3 0.00 0.00 0.00 80 1011.3
20260507041442 11 268 12.9 19.3 0.00 0.00 0.00 80 1011.3
20260507041313 11 270 11.3 19.3 0.00 0.00 0.00 80 1011.2
20260507041215 11 273 11.3 19.3 0.00 0.00 0.00 79 1011.2
20260507041119 11 278 12.9 19.3 0.00 0.00 0.00 79 1011.3
20260507041019 11 267 14.5 19.3 0.00 0.00 0.00 79 1011.3
20260507040912 11 286 14.5 19.3 0.00 0.00 0.00 79 1011.2
20260507040820 11 269 14.5 19.3 0.00 0.00 0.00 79 1011.2
20260507040723 11 263 14.5 17.7 0.00 0.00 0.00 79 1011.3
20260507040626 11 257 14.5 17.7 0.00 0.00 0.00 79 1011.3
20260507040553 11 268 12.9 17.7 0.00 0.00 0.00 79 1010.4
20260507040516 11 263 14.5 17.7 0.00 0.00 0.00 79 1011.2
20260507040420 11 271 14.5 17.7 0.00 0.00 0.00 79 1011.2
20260507040321 11 268 14.5 17.7 0.00 0.00 0.00 79 1011.2
20260507040223 11 270 14.5 16.1 0.00 0.00 0.00 79 1011.2
20260507040155 11 268 12.9 16.1 0.00 0.00 0.00 79 1010.3
20260507040115 11 266 12.9 17.7 0.00 0.00 0.00 79 1011.2
20260507035936 11 266 12.9 17.7 0.00 0.00 0.00 79 1011.2
20260507035839 11 270 12.9 17.7 0.00 0.00 0.00 79 1011.2
20260507035743 12 257 11.3 19.3 0.00 0.00 0.00 78 1011.2
20260507035615 12 280 11.3 19.3 0.00 0.00 0.00 78 1011.1
20260507035515 12 284 9.7 19.3 0.00 0.00 0.00 78 1011.1
20260507035423 12 268 9.7 19.3 0.00 0.00 0.00 78 1011.1
20260507035326 12 270 12.9 19.3 0.00 0.00 0.00 78 1011.1
20260507035218 12 271 12.9 19.3 0.00 0.00 0.00 78 1011.0
20260507035120 12 265 12.9 19.3 0.00 0.00 0.00 78 1011.0
20260507034959 12 268 14.5 19.3 0.00 0.00 0.00 78 1011.0
20260507034850 12 261 16.1 19.3 0.00 0.00 0.00 78 1010.9
20260507034737 12 274 14.5 19.3 0.00 0.00 0.00 78 1010.9
20260507034640 12 268 14.5 20.9 0.00 0.00 0.00 78 1010.9
20260507034601 11 276 14.5 20.9 0.00 0.00 0.00 78 1010.1
20260507034510 12 270 14.5 20.9 0.00 0.00 0.00 78 1011.0
20260507034352 12 274 14.5 20.9 0.00 0.00 0.00 78 1011.0
20260507034254 12 263 16.1 20.9 0.00 0.00 0.00 78 1011.0
20260507034148 12 275 16.1 20.9 0.00 0.00 0.00 78 1010.9
20260507034049 12 271 14.5 20.9 0.00 0.00 0.00 78 1010.9
20260507033954 12 265 14.5 20.9 0.00 0.00 0.00 78 1010.9
20260507033857 12 267 16.1 20.9 0.00 0.00 0.00 78 1010.9
20260507033732 12 286 14.5 20.9 0.00 0.00 0.00 78 1010.9
20260507033636 12 265 12.9 17.7 0.00 0.00 0.00 78 1010.9
20260507033514 12 277 12.9 17.7 0.00 0.00 0.00 77 1010.9
20260507033221 12 263 12.9 17.7 0.00 0.00 0.00 77 1010.8
20260507033121 12 288 14.5 17.7 0.00 0.00 0.00 77 1010.8
20260507033029 11 271 12.9 17.7 0.00 0.00 0.00 77 1009.9
20260507032934 12 294 14.5 17.7 0.00 0.00 0.00 77 1010.8
20260507032836 12 288 14.5 19.3 0.00 0.00 0.00 77 1010.8
20260507032719 12 287 12.9 19.3 0.00 0.00 0.00 77 1010.8
20260507032649 11 279 11.3 19.3 0.00 0.00 0.00 77 1009.9
20260507032611 12 299 12.9 19.3 0.00 0.00 0.00 77 1010.8
20260507032437 12 276 12.9 19.3 0.00 0.00 0.00 77 1010.8
20260507032319 12 268 12.9 19.3 0.00 0.00 0.00 77 1010.8
20260507032213 12 274 14.5 19.3 0.00 0.00 0.00 77 1010.8
20260507032113 12 272 14.5 19.3 0.00 0.00 0.00 77 1010.8
20260507032014 12 277 14.5 19.3 0.00 0.00 0.00 77 1010.8
20260507031917 12 286 16.1 19.3 0.00 0.00 0.00 77 1010.8
20260507031755 12 274 14.5 19.3 0.00 0.00 0.00 77 1010.8
20260507031658 12 265 12.9 19.3 0.00 0.00 0.00 77 1010.8
20260507031559 12 269 12.9 19.3 0.00 0.00 0.00 77 1010.8
20260507031502 12 272 14.5 19.3 0.00 0.00 0.00 77 1010.8
20260507031355 12 276 16.1 19.3 0.00 0.00 0.00 77 1010.8
20260507031259 12 279 16.1 19.3 0.00 0.00 0.00 77 1010.8
20260507031141 12 265 14.5 17.7 0.00 0.00 0.00 77 1010.8
20260507031044 12 273 14.5 17.7 0.00 0.00 0.00 77 1010.8
20260507031021 12 274 12.9 17.7 0.00 0.00 0.00 77 1009.9
20260507030938 12 270 14.5 17.7 0.00 0.00 0.00 77 1010.8
20260507030842 12 274 14.5 17.7 0.00 0.00 0.00 77 1010.8
20260507030745 12 270 12.9 17.7 0.00 0.00 0.00 77 1010.8
20260507030627 12 276 12.9 17.7 0.00 0.00 0.00 77 1010.9
20260507030603 12 277 12.9 17.7 0.00 0.00 0.00 77 1010.0
20260507030519 12 272 14.5 17.7 0.00 0.00 0.00 77 1010.9
20260507030425 12 271 14.5 17.7 0.00 0.00 0.00 77 1010.9
20260507030327 12 269 12.9 17.7 0.00 0.00 0.00 76 1010.9
20260507030209 12 269 12.9 17.7 0.00 0.00 0.00 76 1010.9
20260507030139 12 259 11.3 17.7 0.00 0.00 0.00 76 1010.0
20260507030057 12 280 11.3 17.7 0.00 0.00 0.00 76 1010.9
20260507025959 12 265 12.9 17.7 0.00 0.00 0.00 76 1010.9
20260507025900 12 265 12.9 19.3 0.00 0.00 0.00 76 1010.9
20260507025754 12 266 14.5 20.9 0.00 0.00 0.00 76 1010.9
20260507025701 12 268 12.9 20.9 0.00 0.00 0.00 76 1010.9
20260507025604 12 257 14.5 22.5 0.00 0.00 0.00 76 1010.9
20260507025444 12 255 14.5 22.5 0.00 0.00 0.00 76 1010.9
20260507025337 12 278 12.9 22.5 0.00 0.00 0.00 76 1010.9
20260507025239 12 261 12.9 22.5 0.00 0.00 0.00 76 1010.8
20260507025120 12 268 16.1 22.5 0.00 0.00 0.00 76 1010.8
20260507025024 12 253 16.1 22.5 0.00 0.00 0.00 76 1010.9
20260507025001 12 256 16.1 22.5 0.00 0.00 0.00 76 1010.0
20260507024917 12 258 16.1 22.5 0.00 0.00 0.00 76 1010.8
20260507024819 12 272 14.5 22.5 0.00 0.00 0.00 76 1010.8
20260507024723 12 268 14.5 22.5 0.00 0.00 0.00 76 1010.8
20260507024649 12 263 14.5 22.5 0.00 0.00 0.00 75 1009.9
20260507024615 12 251 16.1 22.5 0.00 0.00 0.00 75 1010.7
20260507024456 12 256 16.1 22.5 0.00 0.00 0.00 75 1010.7
20260507024338 12 252 17.7 22.5 0.00 0.00 0.00 75 1010.7
20260507024243 12 272 16.1 27.4 0.00 0.00 0.00 75 1010.7
20260507024143 12 274 16.1 27.4 0.00 0.00 0.00 75 1010.8
20260507024118 12 261 14.5 27.4 0.00 0.00 0.00 75 1009.9
20260507024033 12 276 16.1 27.4 0.00 0.00 0.00 75 1010.7
20260507023937 12 245 16.1 27.4 0.00 0.00 0.00 75 1010.7
20260507023839 12 263 17.7 27.4 0.00 0.00 0.00 75 1010.7
20260507023700 12 270 17.7 27.4 0.00 0.00 0.00 75 1010.7
20260507023634 12 279 16.1 27.4 0.00 0.00 0.00 75 1009.8
20260507023535 12 263 17.7 27.4 0.00 0.00 0.00 74 1010.7
20260507023439 12 267 17.7 27.4 0.00 0.00 0.00 74 1010.6
20260507023333 12 276 17.7 24.1 0.00 0.00 0.00 74 1010.6
20260507023213 12 268 16.1 27.4 0.00 0.00 0.00 74 1010.6
20260507023115 12 268 17.7 30.6 0.00 0.00 0.00 74 1010.6
20260507023015 13 253 19.3 30.6 0.00 0.00 0.00 74 1010.5
20260507022842 13 270 19.3 30.6 0.00 0.00 0.00 74 1010.5
20260507022734 13 263 19.3 30.6 0.00 0.00 0.00 74 1010.5
20260507022615 13 274 19.3 30.6 0.00 0.00 0.00 74 1010.5
20260507022517 13 268 20.9 30.6 0.00 0.00 0.00 74 1010.5
20260507022420 13 263 22.5 30.6 0.00 0.00 0.00 73 1010.5
20260507022311 13 260 24.1 30.6 0.00 0.00 0.00 73 1010.5
20260507022214 13 276 20.9 30.6 0.00 0.00 0.00 73 1010.6
20260507022120 13 278 20.9 27.4 0.00 0.00 0.00 73 1010.6
20260507022043 12 258 20.9 30.6 0.00 0.00 0.00 73 1009.7
20260507022008 13 266 20.9 30.6 0.00 0.00 0.00 73 1010.5
20260507021911 13 282 20.9 30.6 0.00 0.00 0.00 73 1010.6
20260507021814 13 264 20.9 32.2 0.00 0.00 0.00 73 1010.6
20260507021717 13 268 20.9 32.2 0.00 0.00 0.00 73 1010.5
20260507021643 12 293 20.9 32.2 0.00 0.00 0.00 73 1009.7
20260507021610 13 270 19.3 32.2 0.00 0.00 0.00 73 1010.6
20260507021436 13 268 19.3 32.2 0.00 0.00 0.00 73 1010.5
20260507021340 13 281 20.9 32.2 0.00 0.00 0.00 73 1010.5
20260507021232 13 264 22.5 32.2 0.00 0.00 0.00 73 1010.5
20260507021135 13 259 24.1 32.2 0.00 0.00 0.00 73 1010.5
20260507021036 13 246 20.9 32.2 0.00 0.00 0.00 73 1010.5
20260507020918 13 277 20.9 32.2 0.00 0.00 0.00 73 1010.4
20260507020816 13 257 19.3 37.0 0.00 0.00 0.00 73 1010.4
20260507020718 13 274 19.3 37.0 0.00 0.00 0.00 73 1010.4
20260507020622 13 263 20.9 37.0 0.00 0.00 0.00 73 1010.4
20260507020523 13 268 20.9 37.0 0.00 0.00 0.00 73 1010.4
20260507020355 13 271 22.5 37.0 0.00 0.00 0.00 73 1010.3
20260507020258 13 268 24.1 37.0 0.00 0.00 0.00 73 1010.3
20260507020200 13 263 25.7 37.0 0.00 0.00 0.00 73 1010.3
20260507020108 13 257 25.7 37.0 0.00 0.00 0.00 73 1010.3
20260507020055 13 274 25.7 37.0 0.00 0.00 0.00 73 1009.4
20260507015958 13 270 24.1 35.4 0.00 0.00 0.00 73 1010.3
20260507015840 13 276 20.9 32.2 0.00 0.00 0.00 73 1010.3
20260507015744 13 249 22.5 32.2 0.00 0.00 0.00 73 1010.3
20260507015638 13 267 22.5 35.4 0.00 0.00 0.00 73 1010.4
20260507015539 13 275 20.9 35.4 0.00 0.00 0.00 72 1010.4
20260507015425 13 271 20.9 35.4 0.00 0.00 0.00 72 1010.3
20260507015328 13 274 19.3 35.4 0.00 0.00 0.00 72 1010.3
20260507015220 13 273 20.9 35.4 0.00 0.00 0.00 72 1010.3
20260507015122 13 260 22.5 35.4 0.00 0.00 0.00 72 1010.3
20260507015021 13 268 24.1 35.4 0.00 0.00 0.00 72 1010.3
20260507014925 13 267 25.7 35.4 0.00 0.00 0.00 72 1010.3
20260507014820 13 251 27.4 37.0 0.00 0.00 0.00 72 1010.3
20260507014706 13 261 25.7 37.0 0.00 0.00 0.00 73 1010.3
20260507014607 13 271 25.7 37.0 0.00 0.00 0.00 73 1010.3
20260507014447 13 280 22.5 33.8 0.00 0.00 0.00 73 1010.3
20260507014340 13 270 22.5 33.8 0.00 0.00 0.00 73 1010.3
20260507014241 13 278 24.1 33.8 0.00 0.00 0.00 73 1010.2
20260507014145 13 277 20.9 33.8 0.00 0.00 0.00 73 1010.3
20260507014050 13 274 19.3 29.0 0.00 0.00 0.00 73 1010.3
20260507014022 13 278 19.3 29.0 0.00 0.00 0.00 73 1009.3
20260507013943 13 276 19.3 29.0 0.00 0.00 0.00 73 1010.2
20260507013847 13 287 17.7 29.0 0.00 0.00 0.00 73 1010.3
20260507013751 13 289 17.7 37.0 0.00 0.00 0.00 73 1010.2
20260507013656 13 259 17.7 37.0 0.00 0.00 0.00 73 1009.3
20260507013623 13 270 20.9 37.0 0.00 0.00 0.00 73 1010.2
20260507013524 13 274 24.1 37.0 0.00 0.00 0.00 73 1010.2
20260507013425 13 271 20.9 37.0 0.00 0.00 0.00 73 1010.2
20260507013154 13 261 20.9 37.0 0.00 0.00 0.00 73 1010.2
20260507013054 13 267 25.7 37.0 0.00 0.00 0.00 73 1010.1
20260507012956 13 266 27.4 37.0 0.00 0.00 0.00 73 1010.1
20260507012858 13 261 25.7 35.4 0.00 0.00 0.00 73 1010.1
20260507012751 13 259 25.7 35.4 0.00 0.00 0.00 73 1010.2
20260507012654 13 272 25.7 35.4 0.00 0.00 0.00 73 1010.1
20260507012558 13 261 25.7 35.4 0.00 0.00 0.00 73 1010.2
20260507012502 13 267 25.7 37.0 0.00 0.00 0.00 73 1010.2
20260507012356 13 268 27.4 37.0 0.00 0.00 0.00 73 1010.2
20260507012259 13 270 27.4 45.1 0.00 0.00 0.00 73 1010.1
20260507012158 13 259 25.7 45.1 0.00 0.00 0.00 72 1010.0
20260507012124 13 264 25.7 45.1 0.00 0.00 0.00 72 1009.1
20260507012050 13 258 27.4 45.1 0.00 0.00 0.00 72 1010.1
20260507011935 13 252 27.4 45.1 0.00 0.00 0.00 73 1010.0
20260507011838 13 258 27.4 45.1 0.00 0.00 0.00 73 1010.0
20260507011642 13 271 25.7 45.1 0.00 0.00 0.00 73 1009.0
20260507011605 13 249 29.0 45.1 0.00 0.00 0.00 72 1009.9
20260507011505 13 259 33.8 45.1 0.00 0.00 0.00 72 1010.0
20260507011408 13 279 33.8 46.7 0.00 0.00 0.00 73 1009.9
20260507011311 13 242 30.6 43.5 0.00 0.00 0.00 73 1009.8
20260507011206 13 253 30.6 43.5 0.00 0.00 0.00 73 1009.8
20260507011110 13 268 29.0 43.5 0.00 0.00 0.00 73 1009.8
20260507011010 13 270 27.4 38.6 0.00 0.00 0.00 73 1009.8
20260507010913 13 256 27.4 38.6 0.00 0.00 0.00 73 1009.8
20260507010806 13 257 27.4 45.1 0.00 0.00 0.00 73 1009.7
20260507010708 13 256 29.0 45.1 0.00 0.00 0.00 73 1009.7
20260507010611 13 276 29.0 45.1 0.00 0.00 0.00 73 1009.8
20260507010515 13 249 30.6 45.1 0.00 0.00 0.00 73 1009.8
20260507010409 13 265 25.7 45.1 0.00 0.00 0.00 73 1009.8
20260507010252 13 266 27.4 45.1 0.00 0.00 0.00 73 1009.8
20260507010112 13 251 32.2 49.9 0.00 0.00 0.00 73 1009.7
20260507010040 13 270 30.6 49.9 0.00 0.00 0.00 73 1008.7
20260507005835 13 259 35.4 49.9 0.00 0.00 0.00 73 1009.7
20260507005738 13 272 32.2 49.9 0.00 0.00 0.00 73 1009.7
20260507005645 13 247 30.6 49.9 0.00 0.00 0.00 73 1009.7
20260507005548 13 288 27.4 49.9 0.00 0.00 0.00 73 1008.7
20260507005515 13 257 32.2 49.9 0.00 0.00 0.00 73 1009.6
20260507005357 13 236 35.4 49.9 0.00 0.00 0.00 73 1009.7
20260507005259 13 247 35.4 49.9 0.00 0.00 0.00 73 1009.6
20260507005201 13 248 35.4 46.7 0.00 0.00 0.00 73 1009.7
20260507005106 13 268 33.8 46.7 0.00 0.00 0.00 73 1008.7
20260507005032 13 274 35.4 46.7 0.00 0.00 0.00 73 1009.7
20260507004939 13 266 35.4 46.7 0.00 0.00 0.00 73 1009.7
20260507004819 13 256 32.2 46.7 0.00 0.00 0.00 73 1009.7
20260507004723 13 273 33.8 43.5 0.00 0.00 0.00 73 1009.7
20260507004628 13 274 32.2 43.5 0.00 0.00 0.00 73 1009.8
20260507004539 13 282 30.6 43.5 0.00 0.00 0.00 73 1008.7
20260507004457 13 264 30.6 41.8 0.00 0.00 0.00 73 1009.8
20260507004340 13 280 30.6 41.8 0.00 0.00 0.00 73 1009.8
20260507004138 13 266 20.9 41.8 0.00 0.00 0.00 74 1008.8
20260507004107 13 273 24.1 41.8 0.00 0.00 0.00 74 1009.8
20260507004007 13 263 27.4 41.8 0.00 0.00 0.00 74 1009.8
20260507003910 13 271 27.4 41.8 0.00 0.00 0.00 74 1009.8
20260507003813 13 266 25.7 41.8 0.00 0.00 0.00 74 1009.8
20260507003706 13 274 29.0 41.8 0.00 0.00 0.00 74 1009.8
20260507003608 13 259 32.2 41.8 0.00 0.00 0.00 74 1009.8
20260507003508 13 259 29.0 40.2 0.00 0.00 0.00 74 1009.8
20260507003416 13 257 27.4 38.6 0.00 0.00 0.00 74 1009.8
20260507003311 13 232 24.1 41.8 0.00 0.00 0.00 74 1009.9
20260507003211 13 272 27.4 45.1 0.00 0.00 0.00 74 1009.9
20260507003051 13 281 27.4 45.1 0.00 0.00 0.00 74 1010.0
20260507002956 13 274 24.1 45.1 0.00 0.00 0.00 74 1010.0
20260507002848 13 270 24.1 45.1 0.00 0.00 0.00 74 1010.0
20260507002755 13 276 25.7 45.1 0.00 0.00 0.00 74 1009.9
20260507002659 13 270 25.7 45.1 0.00 0.00 0.00 74 1010.0
20260507002600 13 280 29.0 45.1 0.00 0.00 0.00 75 1010.0
20260507002536 13 248 27.4 45.1 0.00 0.00 0.00 74 1009.0
20260507002452 13 279 30.6 45.1 0.00 0.00 0.00 75 1009.9
20260507002355 13 273 27.4 45.1 0.00 0.00 0.00 75 1009.9
20260507002259 13 242 25.7 41.8 0.00 0.00 0.00 75 1009.9
20260507002130 13 226 25.7 41.8 0.00 0.00 0.00 75 1009.9
20260507002035 13 270 29.0 41.8 0.00 0.00 0.00 75 1009.9
20260507001917 13 257 32.2 41.8 0.00 0.00 0.00 75 1009.9
20260507001819 13 253 32.2 41.8 0.00 0.00 0.00 75 1009.8
20260507001712 13 229 29.0 40.2 0.00 0.00 0.00 75 1009.9
20260507001552 14 258 32.2 40.2 0.00 0.00 0.00 75 1009.9
20260507001434 14 257 27.4 40.2 0.00 0.00 0.00 75 1009.8
20260507001321 14 228 25.7 40.2 0.00 0.00 0.00 75 1009.8
20260507001214 14 271 27.4 41.8 0.00 0.00 0.00 75 1009.9
20260507001118 14 268 29.0 41.8 0.00 0.00 0.00 75 1009.8
20260507001019 14 253 27.4 41.8 0.00 0.00 0.00 75 1009.9
20260507000921 14 248 30.6 41.8 0.00 0.00 0.00 75 1009.9
20260507000733 14 262 32.2 41.8 0.00 0.00 0.00 75 1009.9
20260507000639 14 261 33.8 41.8 0.00 0.00 0.00 76 1009.9
20260507000539 14 215 30.6 41.8 0.00 0.00 0.00 76 1009.9
20260507000413 14 243 25.7 40.2 0.00 0.00 0.00 76 1009.9
20260507000315 14 244 25.7 40.2 0.00 0.00 0.00 76 1009.8
20260507000219 14 249 24.1 40.2 0.00 0.00 0.00 76 1009.7
20260507000120 14 234 27.4 40.2 0.00 0.00 0.00 76 1009.7
20260507000054 13 268 29.0 40.2 0.00 0.00 0.00 76 1008.7
20260507000012 14 278 30.6 40.2 0.00 0.00 0.00 76 1009.7
20260506235920 14 258 30.6 40.2 0.00 0.00 0.00 76 1009.7
20260506235823 14 235 29.0 38.6 0.00 0.00 0.00 76 1009.7
20260506235725 14 229 27.4 38.6 0.00 0.00 0.00 76 1009.7
20260506235658 13 248 27.4 38.6 0.00 0.00 0.00 76 1008.7
20260506235555 14 262 27.4 38.6 0.00 0.00 0.00 76 1009.6
20260506235458 14 257 27.4 38.6 0.00 0.00 0.00 76 1009.7
20260506235400 14 247 29.0 41.8 0.00 0.00 0.00 76 1009.7
20260506235307 14 265 30.6 41.8 0.00 0.00 0.00 76 1009.7
20260506235200 14 249 29.0 41.8 0.00 0.00 0.00 76 1009.7
20260506235103 14 261 24.1 41.8 0.00 0.00 0.00 76 1009.7
20260506235002 14 234 24.1 41.8 0.00 0.00 0.00 76 1009.7
20260506234906 14 248 24.1 41.8 0.00 0.00 0.00 76 1009.6
20260506234736 14 246 29.0 41.8 0.00 0.00 0.00 76 1009.7
20260506234639 14 271 32.2 41.8 0.00 0.00 0.00 76 1009.6
20260506234544 14 274 32.2 41.8 0.00 0.00 0.00 76 1009.6
20260506234510 13 262 30.6 43.5 0.00 0.00 0.00 76 1008.6
20260506234437 14 260 27.4 38.6 0.00 0.00 0.00 76 1009.5
20260506234320 14 271 25.7 45.1 0.00 0.00 0.00 76 1009.6
20260506234221 14 269 27.4 45.1 0.00 0.00 0.00 76 1009.6
20260506234123 14 261 25.7 45.1 0.00 0.00 0.00 76 1009.6
20260506234005 14 266 27.4 45.1 0.00 0.00 0.00 76 1009.6
20260506233902 14 258 30.6 45.1 0.00 0.00 0.00 76 1009.5
20260506233804 14 268 29.0 45.1 0.00 0.00 0.00 76 1009.4
20260506233706 14 253 30.6 45.1 0.00 0.00 0.00 76 1009.4
20260506233609 14 250 30.6 45.1 0.00 0.00 0.00 76 1009.4
20260506233545 14 266 29.0 45.1 0.00 0.00 0.00 76 1008.4
20260506233500 14 242 25.7 38.6 0.00 0.00 0.00 76 1009.4
20260506233402 14 191 27.4 38.6 0.00 0.00 0.00 75 1009.4
20260506233302 14 246 27.4 40.2 0.00 0.00 0.00 75 1009.4
20260506233156 14 270 24.1 43.5 0.00 0.00 0.00 75 1009.2
20260506233036 14 250 22.5 46.7 0.00 0.00 0.00 75 1009.2
20260506232917 14 254 22.5 46.7 0.00 0.00 0.00 75 1009.2
20260506232759 14 263 25.7 46.7 0.00 0.00 0.00 75 1009.2
20260506232652 14 270 30.6 51.5 0.00 0.00 0.00 75 1009.2
20260506232553 14 267 33.8 51.5 0.00 0.00 0.00 75 1009.2
20260506232500 14 255 33.8 51.5 0.00 0.00 0.00 75 1009.2
20260506232403 14 273 32.2 51.5 0.00 0.00 0.00 75 1009.1
20260506232255 14 238 30.6 51.5 0.00 0.00 0.00 75 1009.0
20260506232138 14 255 32.2 51.5 0.00 0.00 0.00 75 1009.1
20260506232018 14 250 37.0 51.5 0.00 0.00 0.00 75 1009.0
20260506231921 14 265 38.6 51.5 0.00 0.00 0.00 75 1009.0
20260506231814 14 262 37.0 48.3 0.00 0.00 0.00 75 1009.0
20260506231722 14 257 33.8 45.1 0.00 0.00 0.00 75 1009.0
20260506231602 14 259 32.2 45.1 0.00 0.00 0.00 75 1008.9
20260506231502 14 245 30.6 45.1 0.00 0.00 0.00 75 1008.9
20260506231355 14 259 30.6 45.1 0.00 0.00 0.00 75 1008.9
20260506231258 14 280 32.2 45.1 0.00 0.00 0.00 75 1008.8
20260506231200 14 273 33.8 45.1 0.00 0.00 0.00 75 1008.8
20260506231124 14 249 33.8 45.1 0.00 0.00 0.00 75 1007.8
20260506231036 14 251 32.2 45.1 0.00 0.00 0.00 75 1008.8
20260506230938 14 267 32.2 45.1 0.00 0.00 0.00 75 1008.8
20260506230820 14 268 33.8 46.7 0.00 0.00 0.00 75 1008.8
20260506230705 14 258 32.2 51.5 0.00 0.00 0.00 75 1008.8
20260506230639 14 238 30.6 51.5 0.00 0.00 0.00 75 1007.8
20260506230555 14 265 30.6 51.5 0.00 0.00 0.00 75 1008.8
20260506230457 14 257 30.6 51.5 0.00 0.00 0.00 75 1008.8
20260506230402 14 272 32.2 51.5 0.00 0.00 0.00 75 1008.8
20260506230255 14 271 32.2 51.5 0.00 0.00 0.00 75 1008.7
20260506230158 14 265 29.0 51.5 0.00 0.00 0.00 75 1008.8
20260506230058 14 253 30.6 51.5 0.00 0.00 0.00 76 1008.7
20260506230000 14 263 32.2 51.5 0.00 0.00 0.00 76 1008.7
20260506225905 14 268 33.8 51.5 0.00 0.00 0.00 76 1008.7
20260506225756 14 233 30.6 51.5 0.00 0.00 0.00 76 1008.7
20260506225703 14 234 24.1 46.7 0.00 0.00 0.00 76 1008.7
20260506225604 15 243 27.4 46.7 0.00 0.00 0.00 76 1008.7
20260506225425 15 247 30.6 48.3 0.00 0.00 0.00 76 1008.7
20260506225318 15 257 33.8 53.1 0.00 0.00 0.00 76 1008.7
20260506225221 15 253 35.4 53.1 0.00 0.00 0.00 76 1008.7
20260506225058 15 270 37.0 53.1 0.00 0.00 0.00 76 1008.7
20260506225027 14 268 37.0 53.1 0.00 0.00 0.00 76 1007.7
20260506224936 15 250 35.4 53.1 0.00 0.00 0.00 76 1008.7
20260506224837 15 261 35.4 53.1 0.00 0.00 0.00 76 1008.6
20260506224741 15 280 38.6 53.1 0.00 0.00 0.00 76 1008.7
20260506224648 14 261 38.6 53.1 0.00 0.00 0.00 76 1007.6
20260506224614 15 276 41.8 53.1 0.00 0.00 0.00 76 1008.6
20260506224515 15 253 43.5 53.1 0.00 0.00 0.00 76 1008.6
20260506224418 15 247 40.2 53.1 0.00 0.00 0.00 75 1008.5
20260506224324 15 261 37.0 51.5 0.00 0.00 0.00 75 1008.6
20260506224155 15 249 37.0 51.5 0.00 0.00 0.00 75 1008.5
20260506224057 15 260 38.6 51.5 0.00 0.00 0.00 75 1008.6
20260506224000 15 268 37.0 53.1 0.00 0.00 0.00 75 1008.6
20260506223904 15 284 37.0 53.1 0.00 0.00 0.00 75 1008.6
20260506223757 15 243 38.6 53.1 0.00 0.00 0.00 75 1008.7
20260506223700 15 257 38.6 53.1 0.00 0.00 0.00 75 1008.7
20260506223607 15 265 37.0 53.1 0.00 0.00 0.00 75 1008.6
20260506223447 15 245 37.0 53.1 0.00 0.00 0.00 76 1008.6
20260506223340 15 250 35.4 48.3 0.00 0.00 0.00 76 1008.5
20260506223242 15 265 35.4 48.3 0.00 0.00 0.00 76 1008.5
20260506223145 15 251 37.0 48.3 0.00 0.00 0.00 75 1008.6
20260506223025 15 249 38.6 48.3 0.00 0.00 0.00 75 1008.5
20260506223003 15 268 37.0 48.3 0.00 0.00 0.00 75 1007.5
20260506222922 15 270 38.6 48.3 0.00 0.00 0.00 75 1008.4
20260506222825 15 275 40.2 48.3 0.00 0.00 0.00 75 1008.5
20260506222726 15 251 35.4 48.3 0.00 0.00 0.00 75 1008.4
20260506222651 15 253 40.2 49.9 0.00 0.00 0.00 75 1007.4
20260506222619 15 266 38.6 48.3 0.00 0.00 0.00 75 1008.4
20260506222517 15 261 38.6 46.7 0.00 0.00 0.00 75 1008.4
20260506222421 15 257 35.4 48.3 0.00 0.00 0.00 75 1008.5
20260506222306 15 212 33.8 48.3 0.00 0.00 0.00 75 1008.4
20260506222157 15 249 35.4 48.3 0.00 0.00 0.00 76 1008.3
20260506222057 15 263 33.8 48.3 0.00 0.00 0.00 76 1008.4
20260506222000 15 259 32.2 48.3 0.00 0.00 0.00 76 1008.3
20260506221901 15 248 32.2 48.3 0.00 0.00 0.00 76 1008.3
20260506221755 15 255 33.8 48.3 0.00 0.00 0.00 76 1008.3
20260506221658 16 271 37.0 48.3 0.00 0.00 0.00 75 1008.2
20260506221607 16 272 35.4 48.3 0.00 0.00 0.00 75 1008.2
20260506221507 16 273 35.4 48.3 0.00 0.00 0.00 76 1008.2
20260506221340 16 251 35.4 48.3 0.00 0.00 0.00 76 1008.2
20260506221242 16 248 35.4 48.3 0.00 0.00 0.00 76 1008.2
20260506221145 16 265 35.4 48.3 0.00 0.00 0.00 76 1008.2
20260506221024 16 256 30.6 49.9 0.00 0.00 0.00 77 1008.2
20260506220915 16 276 29.0 49.9 0.00 0.00 0.00 77 1008.1
20260506220801 16 247 30.6 49.9 0.00 0.00 0.00 77 1008.1
20260506220703 16 261 33.8 49.9 0.00 0.00 0.00 77 1008.1
20260506220605 16 271 38.6 49.9 0.00 0.00 0.00 77 1008.1
20260506220536 15 259 35.4 49.9 0.00 0.00 0.00 77 1007.1
20260506220457 16 273 32.2 46.7 0.00 0.00 0.00 77 1008.2
20260506220400 16 274 24.1 46.7 0.00 0.00 0.00 77 1008.2
20260506220303 16 275 25.7 48.3 0.00 0.00 0.00 77 1008.1
20260506220148 16 255 30.6 48.3 0.00 0.00 0.00 77 1008.0
20260506220121 15 261 32.2 48.3 0.00 0.00 0.00 77 1007.0
20260506220040 16 280 33.8 48.3 0.00 0.00 0.00 77 1007.9
20260506215943 16 255 35.4 48.3 0.00 0.00 0.00 77 1007.9
20260506215825 16 264 33.8 48.3 0.00 0.00 0.00 77 1007.8
20260506215728 16 246 32.2 48.3 0.00 0.00 0.00 77 1007.9
20260506215623 16 239 35.4 48.3 0.00 0.00 0.00 77 1007.9
20260506215503 16 251 38.6 48.3 0.00 0.00 0.00 76 1007.9
20260506215409 16 251 38.6 48.3 0.00 0.00 0.00 76 1007.7
20260506215311 16 261 37.0 46.7 0.00 0.00 0.00 76 1007.7
20260506215202 16 236 37.0 51.5 0.00 0.00 0.00 76 1007.7
20260506215102 16 264 30.6 51.5 0.00 0.00 0.00 75 1007.6
20260506214944 16 269 30.6 53.1 0.00 0.00 0.00 75 1007.7
20260506214846 16 253 30.6 53.1 0.00 0.00 0.00 75 1007.6
20260506214744 16 257 29.0 53.1 0.00 0.00 0.00 75 1007.6
20260506214647 16 259 30.6 53.1 0.00 0.00 0.00 75 1007.5
20260506214526 16 274 35.4 53.1 0.00 0.00 0.00 75 1007.6
20260506214310 16 262 40.2 53.1 0.00 0.00 0.00 74 1007.4
20260506214200 16 247 38.6 53.1 0.00 0.00 0.00 74 1007.3
20260506214059 16 228 32.2 53.1 0.00 0.00 0.00 73 1007.3
20260506213943 16 253 37.0 53.1 0.00 0.00 0.00 73 1007.2
20260506213825 16 248 38.6 53.1 0.00 0.00 0.00 72 1007.2
20260506213708 16 249 38.6 53.1 0.00 0.00 0.00 72 1007.2
20260506213621 16 261 35.4 48.3 0.00 0.00 0.00 72 1006.2
20260506213538 16 247 33.8 49.9 0.00 0.00 0.00 72 1007.2
20260506213440 16 259 32.2 49.9 0.00 0.00 0.00 72 1007.1
20260506213322 16 261 35.4 49.9 0.00 0.00 0.00 71 1007.2
20260506213223 16 232 37.0 49.9 0.00 0.00 0.00 71 1007.1
20260506213158 16 261 37.0 49.9 0.00 0.00 0.00 71 1006.1
20260506213049 16 263 40.2 49.9 0.00 0.00 0.00 71 1007.0
20260506212912 16 253 41.8 49.9 0.00 0.00 0.00 71 1006.9
20260506212815 16 248 38.6 49.9 0.00 0.00 0.00 71 1007.0
20260506212654 16 259 37.0 46.7 0.00 0.00 0.00 70 1006.9
20260506212626 16 265 35.4 46.7 0.00 0.00 0.00 70 1005.9
20260506212547 16 238 35.4 45.1 0.00 0.00 0.00 70 1006.8
20260506212435 16 253 35.4 51.5 0.00 0.00 0.00 70 1006.8
20260506212338 16 261 35.4 51.5 0.00 0.00 0.00 70 1006.8
20260506212209 16 250 35.4 51.5 0.00 0.00 0.00 70 1006.8
20260506212111 16 214 37.0 51.5 0.00 0.00 0.00 70 1006.8
20260506212013 16 242 33.8 51.5 0.00 0.00 0.00 70 1006.7
20260506211738 16 261 41.8 51.5 0.00 0.00 0.00 70 1006.6
20260506211643 16 230 40.2 53.1 0.00 0.00 0.00 69 1006.6
20260506211544 16 270 35.4 49.9 0.00 0.00 0.00 69 1006.6
20260506211521 16 238 33.8 49.9 0.00 0.00 0.00 69 1005.7
20260506211438 16 259 33.8 49.9 0.00 0.00 0.00 69 1006.6
20260506211319 16 250 38.6 49.9 0.00 0.00 0.00 69 1006.6
20260506211200 16 247 35.4 49.9 0.00 0.00 0.00 69 1006.6
20260506211059 16 251 32.2 49.9 0.00 0.00 0.00 69 1006.6
20260506211034 16 236 33.8 49.9 0.00 0.00 0.00 69 1005.6
20260506210956 16 247 37.0 49.9 0.00 0.00 0.00 69 1006.5
20260506210838 16 240 37.0 48.3 0.00 0.00 0.00 69 1006.5
20260506210740 16 251 35.4 48.3 0.00 0.00 0.00 68 1006.5
20260506210643 16 275 33.8 48.3 0.00 0.00 0.00 68 1006.4
20260506210554 16 232 32.2 48.3 0.00 0.00 0.00 68 1005.5
20260506210515 16 265 32.2 48.3 0.00 0.00 0.00 68 1006.5
20260506210417 16 253 32.2 48.3 0.00 0.00 0.00 68 1006.5
20260506210155 16 245 35.4 48.3 0.00 0.00 0.00 68 1005.4
20260506210003 16 255 29.0 46.7 0.00 0.00 0.00 68 1006.4
20260506205905 16 253 30.6 49.9 0.00 0.00 0.00 68 1006.3
20260506205747 16 253 30.6 49.9 0.00 0.00 0.00 68 1006.3
20260506205641 16 292 32.2 51.5 0.00 0.00 0.00 68 1006.3
20260506205540 16 236 35.4 51.5 0.00 0.00 0.00 67 1006.2
20260506205444 16 253 35.4 51.5 0.00 0.00 0.00 67 1006.3
20260506205352 17 271 33.8 51.5 0.00 0.00 0.00 67 1006.3
20260506205244 17 247 40.2 51.5 0.00 0.00 0.00 67 1006.2
20260506205126 17 245 35.4 51.5 0.00 0.00 0.00 67 1006.2
20260506205027 17 245 35.4 51.5 0.00 0.00 0.00 67 1006.2
20260506204930 17 232 33.8 51.5 0.00 0.00 0.00 67 1006.2
20260506204822 17 252 30.6 45.1 0.00 0.00 0.00 67 1006.2
20260506204729 17 213 29.0 45.1 0.00 0.00 0.00 67 1006.2
20260506204633 17 253 29.0 45.1 0.00 0.00 0.00 66 1006.2
20260506204534 16 252 30.6 45.1 0.00 0.00 0.00 66 1005.1
20260506204313 17 232 32.2 43.5 0.00 0.00 0.00 66 1006.1
20260506204215 17 261 32.2 41.8 0.00 0.00 0.00 66 1006.1
20260506204117 17 254 32.2 41.8 0.00 0.00 0.00 65 1006.0
20260506204028 17 243 30.6 38.6 0.00 0.00 0.00 65 1005.0
20260506203949 17 265 30.6 38.6 0.00 0.00 0.00 65 1006.0
20260506203813 17 255 29.0 45.1 0.00 0.00 0.00 64 1006.0
20260506203715 17 213 25.7 45.1 0.00 0.00 0.00 64 1006.0
20260506203615 17 249 27.4 51.5 0.00 0.00 0.00 63 1006.0
20260506203525 17 216 25.7 51.5 0.00 0.00 0.00 63 1005.0
20260506203449 17 250 27.4 51.5 0.00 0.00 0.00 63 1006.0
20260506203331 17 240 24.1 51.5 0.00 0.00 0.00 62 1006.1
20260506203233 18 250 25.7 51.5 0.00 0.00 0.00 62 1006.0
20260506203152 17 236 27.4 51.5 0.00 0.00 0.00 62 1004.9
20260506203108 18 253 30.6 51.5 0.00 0.00 0.00 62 1005.9
20260506203009 18 265 35.4 51.5 0.00 0.00 0.00 61 1005.9
20260506202911 18 272 38.6 51.5 0.00 0.00 0.00 61 1005.9
20260506202804 18 264 35.4 51.5 0.00 0.00 0.00 60 1005.8
20260506202706 18 259 38.6 49.9 0.00 0.00 0.00 58 1005.8
20260506202546 18 268 35.4 49.9 0.00 0.00 0.00 58 1005.7
20260506202427 19 259 37.0 49.9 0.00 0.00 0.00 57 1005.7
20260506202324 19 264 40.2 49.9 0.00 0.00 0.00 56 1005.6
20260506202226 19 274 35.4 48.3 0.00 0.00 0.00 53 1005.5
20260506202127 20 268 25.7 45.1 0.00 0.00 0.00 53 1005.5
20260506202007 20 268 25.7 35.4 0.00 0.00 0.00 52 1005.5
20260506201859 20 255 25.7 35.4 0.00 0.00 0.00 52 1005.3
20260506201801 20 270 24.1 35.4 0.00 0.00 0.00 52 1005.3
20260506201648 20 261 25.7 35.4 0.00 0.00 0.00 52 1005.3
20260506201549 20 280 25.7 35.4 0.00 0.00 0.00 51 1005.3
20260506201506 20 270 24.1 35.4 0.00 0.00 0.00 51 1004.3
20260506201422 20 270 25.7 33.8 0.00 0.00 0.00 51 1005.3
20260506201304 20 249 22.5 33.8 0.00 0.00 0.00 51 1005.3
20260506201205 20 272 16.1 25.7 0.00 0.00 0.00 51 1005.3
20260506201110 20 254 16.1 20.9 0.00 0.00 0.00 52 1005.3
20260506201041 20 269 14.5 19.3 0.00 0.00 0.00 52 1004.3
20260506201001 20 280 14.5 20.9 0.00 0.00 0.00 52 1005.2
20260506200905 20 273 11.3 19.3 0.00 0.00 0.00 51 1005.1
20260506200747 20 255 9.7 19.3 0.00 0.00 0.00 52 1005.0
20260506200648 20 236 11.3 19.3 0.00 0.00 0.00 51 1005.0
20260506200614 20 236 9.7 19.3 0.00 0.00 0.00 51 1004.0
20260506200539 20 250 8.0 19.3 0.00 0.00 0.00 52 1004.9
20260506200441 20 228 8.0 19.3 0.00 0.00 0.00 52 1004.9
20260506200344 20 231 12.9 19.3 0.00 0.00 0.00 51 1004.9
20260506200229 20 226 14.5 20.9 0.00 0.00 0.00 51 1004.8
20260506200155 20 243 11.3 19.3 0.00 0.00 0.00 52 1003.8
20260506200122 20 220 11.3 16.1 0.00 0.00 0.00 52 1004.8
20260506200022 20 239 8.0 16.1 0.00 0.00 0.00 52 1004.7
20260506195903 20 230 9.7 16.1 0.00 0.00 0.00 52 1004.7
20260506195745 20 228 9.7 16.1 0.00 0.00 0.00 52 1004.7
20260506195637 20 226 11.3 16.1 0.00 0.00 0.00 52 1004.7
20260506195537 20 212 11.3 16.1 0.00 0.00 0.00 51 1004.6
20260506195423 20 224 9.7 16.1 0.00 0.00 0.00 51 1004.6
20260506195326 20 228 9.7 16.1 0.00 0.00 0.00 51 1004.6
20260506195217 20 207 11.3 16.1 0.00 0.00 0.00 51 1004.6
20260506195120 20 211 9.7 16.1 0.00 0.00 0.00 51 1004.6
20260506195021 20 207 11.3 19.3 0.00 0.00 0.00 51 1004.5
20260506194924 20 220 11.3 19.3 0.00 0.00 0.00 51 1004.5
20260506194822 20 233 11.3 19.3 0.00 0.00 0.00 51 1004.5
20260506194724 20 221 11.3 19.3 0.00 0.00 0.00 51 1004.5
20260506194629 20 218 11.3 19.3 0.00 0.00 0.00 51 1004.5
20260506194529 20 227 11.3 19.3 0.00 0.00 0.00 51 1004.5
20260506194400 20 236 12.9 19.3 0.00 0.00 0.00 51 1004.5
20260506194303 20 237 12.9 19.3 0.00 0.00 0.00 51 1004.5
20260506194159 20 225 12.9 19.3 0.00 0.00 0.00 51 1004.5
20260506194107 20 202 12.9 17.7 0.00 0.00 0.00 51 1004.5
20260506194009 20 221 12.9 19.3 0.00 0.00 0.00 51 1004.5
20260506193903 20 191 12.9 19.3 0.00 0.00 0.00 51 1004.5
20260506193805 20 213 12.9 19.3 0.00 0.00 0.00 51 1004.5
20260506193608 20 226 12.9 19.3 0.00 0.00 0.00 51 1003.5
20260506193528 20 212 12.9 22.5 0.00 0.00 0.00 50 1004.6
20260506193430 20 224 12.9 22.5 0.00 0.00 0.00 50 1004.6
20260506193315 20 236 12.9 22.5 0.00 0.00 0.00 50 1004.6
20260506193217 20 216 11.3 22.5 0.00 0.00 0.00 50 1004.6
20260506193145 20 238 8.0 22.5 0.00 0.00 0.00 50 1003.4
20260506193111 20 220 8.0 22.5 0.00 0.00 0.00 50 1004.5
20260506193011 20 218 9.7 22.5 0.00 0.00 0.00 50 1004.5
20260506192915 20 224 11.3 22.5 0.00 0.00 0.00 50 1004.4
20260506192818 20 216 14.5 22.5 0.00 0.00 0.00 50 1004.4
20260506192716 20 267 14.5 22.5 0.00 0.00 0.00 50 1004.4
20260506192619 20 217 12.9 19.3 0.00 0.00 0.00 50 1004.4
20260506192458 20 216 8.0 19.3 0.00 0.00 0.00 50 1004.3
20260506192333 20 213 11.3 19.3 0.00 0.00 0.00 49 1004.4
20260506192235 20 222 12.9 19.3 0.00 0.00 0.00 49 1004.3
20260506192136 20 226 12.9 22.5 0.00 0.00 0.00 49 1004.2
20260506192105 20 241 12.9 22.5 0.00 0.00 0.00 49 1003.2
20260506192031 20 227 16.1 22.5 0.00 0.00 0.00 49 1004.2
20260506191934 20 219 14.5 19.3 0.00 0.00 0.00 49 1004.2
20260506191835 20 199 12.9 22.5 0.00 0.00 0.00 49 1004.2
20260506191738 21 205 12.9 22.5 0.00 0.00 0.00 49 1004.2
20260506191632 21 211 11.3 25.7 0.00 0.00 0.00 49 1004.2
20260506191511 21 225 14.5 25.7 0.00 0.00 0.00 49 1004.2
20260506191414 21 236 14.5 25.7 0.00 0.00 0.00 49 1004.2
20260506191319 21 210 12.9 25.7 0.00 0.00 0.00 48 1004.2
20260506191211 21 235 12.9 25.7 0.00 0.00 0.00 48 1004.2
20260506191114 20 228 16.1 25.7 0.00 0.00 0.00 48 1004.1
20260506191014 20 217 17.7 25.7 0.00 0.00 0.00 49 1004.1
20260506190916 20 255 16.1 25.7 0.00 0.00 0.00 48 1004.0
20260506190810 20 253 14.5 25.7 0.00 0.00 0.00 49 1004.0
20260506190717 20 211 11.3 25.7 0.00 0.00 0.00 49 1004.0
20260506190618 20 263 11.3 25.7 0.00 0.00 0.00 49 1003.9
20260506190501 20 228 12.9 25.7 0.00 0.00 0.00 48 1003.9
20260506190353 20 249 14.5 22.5 0.00 0.00 0.00 49 1003.9
20260506190255 20 240 12.9 22.5 0.00 0.00 0.00 49 1003.9
20260506190157 20 234 11.3 19.3 0.00 0.00 0.00 49 1003.8
20260506190116 20 250 8.0 17.7 0.00 0.00 0.00 49 1002.7
20260506190034 20 259 8.0 17.7 0.00 0.00 0.00 49 1003.7
20260506185937 20 238 8.0 17.7 0.00 0.00 0.00 49 1003.7
20260506185840 20 226 8.0 17.7 0.00 0.00 0.00 49 1003.7
20260506185743 20 236 11.3 17.7 0.00 0.00 0.00 49 1003.7
20260506185637 20 257 8.0 17.7 0.00 0.00 0.00 49 1003.8
20260506185517 20 224 8.0 17.7 0.00 0.00 0.00 49 1003.7
20260506185420 20 201 9.7 19.3 0.00 0.00 0.00 49 1003.7
20260506185326 20 245 9.7 19.3 0.00 0.00 0.00 49 1003.7
20260506185218 20 225 11.3 19.3 0.00 0.00 0.00 49 1003.7
20260506185121 20 239 12.9 19.3 0.00 0.00 0.00 49 1003.7
20260506185022 20 246 9.7 19.3 0.00 0.00 0.00 49 1003.7
20260506184916 20 222 9.7 19.3 0.00 0.00 0.00 49 1003.6
20260506184819 20 220 9.7 19.3 0.00 0.00 0.00 49 1003.6
20260506184726 20 222 12.9 19.3 0.00 0.00 0.00 49 1003.6
20260506184535 20 225 9.7 22.5 0.00 0.00 0.00 49 1002.5
20260506184450 20 229 9.7 22.5 0.00 0.00 0.00 50 1003.5
20260506184354 20 229 8.0 22.5 0.00 0.00 0.00 49 1003.5
20260506184257 20 216 9.7 22.5 0.00 0.00 0.00 50 1003.5
20260506184157 20 196 9.7 22.5 0.00 0.00 0.00 49 1003.5
20260506184127 20 220 8.0 22.5 0.00 0.00 0.00 50 1002.4
20260506184049 20 218 9.7 22.5 0.00 0.00 0.00 50 1003.4
20260506183937 20 218 12.9 22.5 0.00 0.00 0.00 49 1003.5
20260506183840 20 237 14.5 22.5 0.00 0.00 0.00 49 1003.5
20260506183733 20 236 12.9 22.5 0.00 0.00 0.00 49 1003.5
20260506183635 20 243 11.3 19.3 0.00 0.00 0.00 49 1003.5
20260506183536 20 209 9.7 17.7 0.00 0.00 0.00 49 1003.5
20260506183503 20 222 8.0 14.5 0.00 0.00 0.00 49 1002.4
20260506183428 20 209 6.4 12.9 0.00 0.00 0.00 49 1003.5
20260506183314 21 195 6.4 12.9 0.00 0.00 0.00 49 1003.5
20260506183215 21 219 6.4 9.7 0.00 0.00 0.00 49 1003.5
20260506183119 21 208 6.4 9.7 0.00 0.00 0.00 48 1003.5
20260506183021 21 219 4.8 9.7 0.00 0.00 0.00 49 1003.5
20260506182747 21 191 4.8 9.7 0.00 0.00 0.00 49 1003.4
20260506182649 21 211 4.8 9.7 0.00 0.00 0.00 49 1003.4
20260506182553 21 213 6.4 9.7 0.00 0.00 0.00 48 1003.4
20260506182532 21 217 4.8 9.7 0.00 0.00 0.00 48 1002.3
20260506182447 21 226 4.8 8.0 0.00 0.00 0.00 48 1003.4
20260506182331 21 227 3.2 8.0 0.00 0.00 0.00 47 1003.4
20260506182221 21 209 1.6 6.4 0.00 0.00 0.00 47 1003.4
20260506182100 21 209 1.6 6.4 0.00 0.00 0.00 47 1003.4
20260506181941 21 209 0.0 6.4 0.00 0.00 0.00 47 1003.4
20260506181849 21 209 0.0 6.4 0.00 0.00 0.00 47 1003.4
20260506181743 21 209 1.6 6.4 0.00 0.00 0.00 47 1003.3
20260506181624 21 209 3.2 6.4 0.00 0.00 0.00 47 1003.4
20260506181524 21 209 3.2 4.8 0.00 0.00 0.00 47 1003.5
20260506181428 21 209 1.6 4.8 0.00 0.00 0.00 47 1003.4
20260506181322 21 209 1.6 4.8 0.00 0.00 0.00 47 1003.4
20260506181036 21 209 1.6 6.4 0.00 0.00 0.00 46 1003.3
20260506180939 21 209 1.6 6.4 0.00 0.00 0.00 46 1003.3
20260506180833 21 209 1.6 6.4 0.00 0.00 0.00 46 1003.3
20260506180734 22 209 1.6 8.0 0.00 0.00 0.00 46 1003.3
20260506180637 22 209 3.2 8.0 0.00 0.00 0.00 46 1003.2
20260506180538 22 209 4.8 9.7 0.00 0.00 0.00 46 1003.3
20260506180513 21 209 3.2 9.7 0.00 0.00 0.00 46 1002.2
20260506180431 22 216 4.8 9.7 0.00 0.00 0.00 46 1003.2
20260506180318 22 217 1.6 9.7 0.00 0.00 0.00 46 1003.2
20260506180219 22 193 1.6 9.7 0.00 0.00 0.00 46 1003.2
20260506180122 22 188 1.6 9.7 0.00 0.00 0.00 46 1003.2
20260506180053 21 188 1.6 9.7 0.00 0.00 0.00 46 1002.0
20260506180014 22 188 3.2 9.7 0.00 0.00 0.00 45 1003.1
20260506175918 22 195 4.8 16.1 0.00 0.00 0.00 45 1003.2
20260506175818 22 197 3.2 16.1 0.00 0.00 0.00 45 1003.1
20260506175725 22 213 3.2 16.1 0.00 0.00 0.00 45 1003.1
20260506175656 22 198 3.2 16.1 0.00 0.00 0.00 45 1002.0
20260506175616 22 189 6.4 16.1 0.00 0.00 0.00 45 1003.2
20260506175458 22 193 6.4 16.1 0.00 0.00 0.00 45 1003.1
20260506175338 22 199 6.4 16.1 0.00 0.00 0.00 45 1003.2
20260506175239 22 205 8.0 16.1 0.00 0.00 0.00 45 1003.2
20260506175155 22 196 8.0 16.1 0.00 0.00 0.00 44 1002.0
20260506175110 22 190 8.0 16.1 0.00 0.00 0.00 45 1003.1
20260506175011 22 230 6.4 14.5 0.00 0.00 0.00 45 1003.1
20260506174918 22 207 6.4 14.5 0.00 0.00 0.00 45 1003.1
20260506174820 22 181 6.4 14.5 0.00 0.00 0.00 45 1003.2
20260506174714 22 187 6.4 11.3 0.00 0.00 0.00 45 1003.1
20260506174532 22 197 4.8 11.3 0.00 0.00 0.00 45 1003.0
20260506174435 22 186 4.8 9.7 0.00 0.00 0.00 45 1003.0
20260506174306 22 182 3.2 8.0 0.00 0.00 0.00 45 1003.0
20260506174211 22 195 3.2 9.7 0.00 0.00 0.00 45 1003.0
20260506174115 22 192 3.2 9.7 0.00 0.00 0.00 45 1003.0
20260506174016 22 205 3.2 9.7 0.00 0.00 0.00 45 1003.0
20260506173907 22 214 4.8 9.7 0.00 0.00 0.00 45 1003.0
20260506173808 22 199 4.8 9.7 0.00 0.00 0.00 45 1003.0
20260506173709 22 185 4.8 9.7 0.00 0.00 0.00 45 1003.0
20260506173613 22 197 4.8 9.7 0.00 0.00 0.00 45 1002.9
20260506173544 22 180 4.8 9.7 0.00 0.00 0.00 45 1001.8
20260506173509 22 191 6.4 9.7 0.00 0.00 0.00 45 1002.9
20260506173351 22 199 4.8 9.7 0.00 0.00 0.00 45 1002.9
20260506173254 22 184 4.8 12.9 0.00 0.00 0.00 45 1002.9
20260506173157 22 161 4.8 17.7 0.00 0.00 0.00 44 1002.9
20260506173130 22 180 4.8 17.7 0.00 0.00 0.00 44 1001.8
20260506173048 22 190 4.8 17.7 0.00 0.00 0.00 44 1002.8
20260506172949 22 178 4.8 17.7 0.00 0.00 0.00 44 1002.9
20260506172856 22 189 6.4 17.7 0.00 0.00 0.00 45 1002.9
20260506172758 22 192 6.4 17.7 0.00 0.00 0.00 44 1002.9
20260506172700 22 202 4.8 17.7 0.00 0.00 0.00 44 1002.9
20260506172634 22 175 4.8 17.7 0.00 0.00 0.00 44 1001.8
20260506172552 22 195 6.4 17.7 0.00 0.00 0.00 44 1002.9
20260506172454 22 212 6.4 17.7 0.00 0.00 0.00 44 1002.8
20260506172357 22 145 6.4 17.7 0.00 0.00 0.00 44 1002.9
20260506172235 22 193 3.2 9.7 0.00 0.00 0.00 44 1002.9
20260506172136 22 178 3.2 9.7 0.00 0.00 0.00 44 1002.9
20260506172016 22 198 4.8 9.7 0.00 0.00 0.00 44 1002.9
20260506171910 22 185 4.8 9.7 0.00 0.00 0.00 44 1002.9
20260506171752 23 207 3.2 11.3 0.00 0.00 0.00 44 1002.9
20260506171655 23 175 3.2 11.3 0.00 0.00 0.00 44 1002.9
20260506171556 23 201 4.8 11.3 0.00 0.00 0.00 44 1002.9
20260506171505 22 207 3.2 11.3 0.00 0.00 0.00 44 1001.8
20260506171433 23 207 4.8 11.3 0.00 0.00 0.00 44 1003.0
20260506171335 23 159 4.8 11.3 0.00 0.00 0.00 43 1003.0
20260506171236 23 185 4.8 11.3 0.00 0.00 0.00 43 1003.0
20260506171139 23 194 6.4 11.3 0.00 0.00 0.00 44 1003.0
20260506171111 22 190 6.4 11.3 0.00 0.00 0.00 44 1001.9
20260506171031 23 173 6.4 11.3 0.00 0.00 0.00 43 1003.0
20260506170913 23 186 4.8 11.3 0.00 0.00 0.00 43 1003.0
20260506170819 23 197 3.2 11.3 0.00 0.00 0.00 43 1003.0
20260506170702 23 182 4.8 11.3 0.00 0.00 0.00 43 1003.0
20260506170632 22 181 4.8 11.3 0.00 0.00 0.00 43 1001.9
20260506170554 23 199 4.8 11.3 0.00 0.00 0.00 43 1003.0
20260506170457 23 202 4.8 9.7 0.00 0.00 0.00 43 1003.0
20260506170218 23 194 4.8 14.5 0.00 0.00 0.00 43 1003.0
20260506170121 23 130 3.2 14.5 0.00 0.00 0.00 43 1003.0
20260506170026 23 147 4.8 14.5 0.00 0.00 0.00 43 1003.0
20260506165928 23 187 4.8 14.5 0.00 0.00 0.00 42 1003.1
20260506165830 23 154 4.8 14.5 0.00 0.00 0.00 43 1003.1
20260506165642 23 175 4.8 14.5 0.00 0.00 0.00 43 1003.1
20260506165543 23 184 4.8 11.3 0.00 0.00 0.00 42 1003.1
20260506165425 23 141 4.8 11.3 0.00 0.00 0.00 42 1003.0
20260506165319 23 191 4.8 11.3 0.00 0.00 0.00 42 1003.2
20260506165202 23 178 4.8 11.3 0.00 0.00 0.00 42 1003.2
20260506165106 23 193 4.8 11.3 0.00 0.00 0.00 42 1003.2
20260506165006 23 189 4.8 14.5 0.00 0.00 0.00 42 1003.0
20260506164858 23 220 4.8 14.5 0.00 0.00 0.00 42 1003.1
20260506164800 23 172 4.8 14.5 0.00 0.00 0.00 43 1003.1
20260506164700 23 152 6.4 14.5 0.00 0.00 0.00 42 1003.0
20260506164543 23 222 6.4 14.5 0.00 0.00 0.00 42 1003.2
20260506164516 23 213 6.4 14.5 0.00 0.00 0.00 41 1002.1
20260506164437 23 199 6.4 14.5 0.00 0.00 0.00 42 1003.1
20260506164339 23 199 6.4 14.5 0.00 0.00 0.00 42 1003.2
20260506164220 23 161 6.4 14.5 0.00 0.00 0.00 42 1003.2
20260506164120 23 126 6.4 16.1 0.00 0.00 0.00 41 1003.1
20260506164034 23 130 4.8 16.1 0.00 0.00 0.00 41 1002.0
20260506163931 23 196 4.8 16.1 0.00 0.00 0.00 42 1003.2
20260506163835 23 156 3.2 16.1 0.00 0.00 0.00 42 1003.1
20260506163743 23 156 4.8 16.1 0.00 0.00 0.00 42 1003.1
20260506163646 23 186 4.8 16.1 0.00 0.00 0.00 42 1003.1
20260506163549 23 193 4.8 16.1 0.00 0.00 0.00 41 1002.1
20260506163517 23 166 8.0 16.1 0.00 0.00 0.00 40 1003.2
20260506163359 23 134 6.4 17.7 0.00 0.00 0.00 41 1003.1
20260506163301 23 213 4.8 14.5 0.00 0.00 0.00 42 1003.1
20260506163202 23 194 6.4 14.5 0.00 0.00 0.00 42 1003.2
20260506163107 24 139 4.8 14.5 0.00 0.00 0.00 42 1003.2
20260506163030 23 222 4.8 14.5 0.00 0.00 0.00 42 1002.1
20260506162932 24 202 4.8 14.5 0.00 0.00 0.00 42 1003.1
20260506162836 24 197 6.4 14.5 0.00 0.00 0.00 41 1003.2
20260506162739 24 217 8.0 14.5 0.00 0.00 0.00 42 1003.2
20260506162644 24 222 8.0 14.5 0.00 0.00 0.00 41 1003.2
20260506162619 23 204 8.0 16.1 0.00 0.00 0.00 41 1002.1
20260506162513 24 185 8.0 12.9 0.00 0.00 0.00 41 1003.2
20260506162415 24 201 8.0 12.9 0.00 0.00 0.00 41 1003.2
20260506162301 24 184 8.0 14.5 0.00 0.00 0.00 40 1003.2
20260506162152 24 191 8.0 14.5 0.00 0.00 0.00 40 1003.2
20260506162053 24 181 8.0 14.5 0.00 0.00 0.00 40 1003.2
20260506161935 25 137 4.8 14.5 0.00 0.00 0.00 40 1003.3
20260506161838 25 157 6.4 14.5 0.00 0.00 0.00 40 1003.2
20260506161731 25 201 6.4 14.5 0.00 0.00 0.00 40 1003.2
20260506161637 25 186 6.4 14.5 0.00 0.00 0.00 41 1003.2
20260506161538 25 205 8.0 14.5 0.00 0.00 0.00 40 1003.3
20260506161441 25 222 8.0 14.5 0.00 0.00 0.00 40 1003.2
20260506161336 25 231 4.8 11.3 0.00 0.00 0.00 40 1003.2
20260506161235 25 186 3.2 9.7 0.00 0.00 0.00 40 1003.3
20260506161117 25 183 3.2 9.7 0.00 0.00 0.00 40 1003.2
20260506161019 25 209 3.2 9.7 0.00 0.00 0.00 40 1003.2
20260506160918 25 191 1.6 9.7 0.00 0.00 0.00 40 1003.2
20260506160819 25 187 3.2 9.7 0.00 0.00 0.00 40 1003.2
20260506160723 25 194 4.8 9.7 0.00 0.00 0.00 39 1003.2
20260506160607 25 103 3.2 12.9 0.00 0.00 0.00 40 1003.2
20260506160542 25 186 1.6 12.9 0.00 0.00 0.00 40 1002.1
20260506160456 25 179 1.6 12.9 0.00 0.00 0.00 41 1003.2
20260506160359 25 178 1.6 12.9 0.00 0.00 0.00 39 1003.2
20260506160304 25 178 3.2 12.9 0.00 0.00 0.00 40 1003.2
20260506160156 25 178 3.2 12.9 0.00 0.00 0.00 39 1003.2
20260506160057 25 161 1.6 12.9 0.00 0.00 0.00 39 1003.2
20260506160000 25 184 1.6 12.9 0.00 0.00 0.00 38 1003.2
20260506155902 25 195 4.8 12.9 0.00 0.00 0.00 38 1003.2
20260506155735 25 186 6.4 12.9 0.00 0.00 0.00 38 1003.3
20260506155639 25 184 6.4 11.3 0.00 0.00 0.00 39 1003.3
20260506155415 25 220 3.2 9.7 0.00 0.00 0.00 40 1003.3
20260506155310 25 193 4.8 9.7 0.00 0.00 0.00 40 1003.3
20260506155150 25 228 6.4 12.9 0.00 0.00 0.00 41 1003.3
20260506155050 25 236 6.4 12.9 0.00 0.00 0.00 39 1003.3
20260506155018 25 215 4.8 12.9 0.00 0.00 0.00 39 1002.2
20260506154943 25 199 6.4 12.9 0.00 0.00 0.00 38 1003.3
20260506154847 25 211 4.8 12.9 0.00 0.00 0.00 38 1003.4
20260506154752 25 191 3.2 12.9 0.00 0.00 0.00 37 1003.3
20260506154615 25 193 3.2 12.9 0.00 0.00 0.00 38 1003.3
20260506154540 25 221 3.2 12.9 0.00 0.00 0.00 38 1002.2
20260506154505 25 171 4.8 12.9 0.00 0.00 0.00 38 1003.3
20260506154406 25 188 4.8 12.9 0.00 0.00 0.00 38 1003.3
20260506154309 25 205 3.2 14.5 0.00 0.00 0.00 39 1003.4
20260506154210 25 313 3.2 9.7 0.00 0.00 0.00 38 1003.3
20260506154119 25 153 1.6 9.7 0.00 0.00 0.00 37 1003.3
20260506154055 25 140 1.6 9.7 0.00 0.00 0.00 37 1002.2
20260506153841 25 132 4.8 11.3 0.00 0.00 0.00 36 1003.3
20260506153722 25 200 6.4 11.3 0.00 0.00 0.00 37 1003.4
20260506153652 25 190 4.8 11.3 0.00 0.00 0.00 37 1002.3
20260506153615 25 213 4.8 11.3 0.00 0.00 0.00 37 1003.4
20260506153515 25 201 3.2 11.3 0.00 0.00 0.00 37 1003.4
20260506153418 25 183 4.8 11.3 0.00 0.00 0.00 37 1003.3
20260506153235 25 143 4.8 11.3 0.00 0.00 0.00 37 1003.4
20260506153138 25 175 6.4 14.5 0.00 0.00 0.00 38 1003.3
20260506153018 25 220 6.4 14.5 0.00 0.00 0.00 36 1003.4
20260506152912 26 201 4.8 14.5 0.00 0.00 0.00 36 1003.4
20260506152814 26 183 4.8 14.5 0.00 0.00 0.00 36 1003.4
20260506152716 26 205 8.0 14.5 0.00 0.00 0.00 36 1003.4
20260506152624 26 186 8.0 14.5 0.00 0.00 0.00 36 1003.5
20260506152549 25 193 6.4 14.5 0.00 0.00 0.00 36 1002.4
20260506152517 26 218 6.4 14.5 0.00 0.00 0.00 36 1003.5
20260506152418 26 186 4.8 14.5 0.00 0.00 0.00 36 1003.5
20260506152258 26 165 1.6 12.9 0.00 0.00 0.00 38 1003.4
20260506152139 26 214 4.8 12.9 0.00 0.00 0.00 37 1003.4
20260506152111 25 214 6.4 12.9 0.00 0.00 0.00 37 1002.3
20260506152030 26 209 8.0 12.9 0.00 0.00 0.00 37 1003.4
20260506151912 26 218 6.4 12.9 0.00 0.00 0.00 38 1003.4
20260506151819 26 232 6.4 14.5 0.00 0.00 0.00 37 1003.4
20260506151722 26 207 6.4 14.5 0.00 0.00 0.00 37 1003.4
20260506151635 25 220 6.4 14.5 0.00 0.00 0.00 37 1002.4
20260506151534 26 225 6.4 14.5 0.00 0.00 0.00 36 1003.5
20260506151416 26 218 4.8 16.1 0.00 0.00 0.00 36 1003.5
20260506151310 26 223 6.4 16.1 0.00 0.00 0.00 37 1003.5
20260506151211 26 155 8.0 16.1 0.00 0.00 0.00 36 1003.5
20260506151116 26 204 9.7 16.1 0.00 0.00 0.00 35 1003.5
20260506151017 26 232 8.0 16.1 0.00 0.00 0.00 35 1003.5
20260506150911 26 207 6.4 16.1 0.00 0.00 0.00 35 1003.5
20260506150813 26 220 9.7 24.1 0.00 0.00 0.00 35 1003.5
20260506150655 26 205 8.0 24.1 0.00 0.00 0.00 35 1003.5
20260506150556 26 194 8.0 24.1 0.00 0.00 0.00 35 1003.4
20260506150508 26 212 6.4 24.1 0.00 0.00 0.00 35 1002.3
20260506150432 26 188 8.0 24.1 0.00 0.00 0.00 36 1003.4
20260506150336 26 191 8.0 24.1 0.00 0.00 0.00 35 1003.4
20260506150237 26 194 9.7 24.1 0.00 0.00 0.00 36 1003.4
20260506150119 26 209 12.9 24.1 0.00 0.00 0.00 36 1003.5
20260506150046 26 215 11.3 24.1 0.00 0.00 0.00 36 1002.3
20260506150009 26 228 11.3 24.1 0.00 0.00 0.00 36 1003.4
20260506145912 26 248 9.7 12.9 0.00 0.00 0.00 35 1003.4
20260506145815 26 226 8.0 16.1 0.00 0.00 0.00 35 1003.5
20260506145722 26 230 8.0 16.1 0.00 0.00 0.00 34 1003.4
20260506145651 26 203 6.4 16.1 0.00 0.00 0.00 34 1002.4
20260506145615 26 193 8.0 16.1 0.00 0.00 0.00 34 1003.5
20260506145515 26 195 6.4 16.1 0.00 0.00 0.00 34 1003.5
20260506145417 26 217 6.4 16.1 0.00 0.00 0.00 34 1003.4
20260506145259 26 209 6.4 16.1 0.00 0.00 0.00 33 1003.4
20260506145150 26 199 8.0 17.7 0.00 0.00 0.00 33 1003.5
20260506145054 26 153 8.0 20.9 0.00 0.00 0.00 33 1003.5
20260506144957 26 188 8.0 20.9 0.00 0.00 0.00 33 1003.5
20260506144900 27 193 9.7 20.9 0.00 0.00 0.00 33 1003.5
20260506144752 27 218 12.9 20.9 0.00 0.00 0.00 34 1003.4
20260506144654 27 240 11.3 20.9 0.00 0.00 0.00 34 1003.5
20260506144554 27 251 11.3 20.9 0.00 0.00 0.00 34 1003.5
20260506144517 26 230 11.3 20.9 0.00 0.00 0.00 34 1002.4
20260506144432 27 225 12.9 20.9 0.00 0.00 0.00 34 1003.4
20260506144313 27 230 12.9 20.9 0.00 0.00 0.00 35 1003.5
20260506144215 27 240 9.7 22.5 0.00 0.00 0.00 35 1003.5
20260506144114 27 213 8.0 29.0 0.00 0.00 0.00 34 1003.4
20260506144026 26 218 8.0 29.0 0.00 0.00 0.00 34 1002.3
20260506143948 27 238 9.7 29.0 0.00 0.00 0.00 35 1003.4
20260506143852 27 215 8.0 29.0 0.00 0.00 0.00 34 1003.4
20260506143755 27 215 4.8 29.0 0.00 0.00 0.00 33 1003.4
20260506143701 27 199 4.8 29.0 0.00 0.00 0.00 33 1003.4
20260506143627 26 199 6.4 29.0 0.00 0.00 0.00 33 1002.3
20260506143553 27 199 9.7 29.0 0.00 0.00 0.00 33 1003.5
20260506143457 27 205 11.3 29.0 0.00 0.00 0.00 34 1003.4
20260506143359 27 227 17.7 29.0 0.00 0.00 0.00 34 1003.4
20260506143239 27 234 17.7 29.0 0.00 0.00 0.00 34 1003.4
20260506143134 27 246 12.9 22.5 0.00 0.00 0.00 34 1003.4
20260506143037 27 243 11.3 20.9 0.00 0.00 0.00 34 1003.4
20260506142940 27 232 14.5 20.9 0.00 0.00 0.00 33 1003.5
20260506142843 27 270 14.5 20.9 0.00 0.00 0.00 34 1003.4
20260506142737 27 251 12.9 20.9 0.00 0.00 0.00 33 1003.4
20260506142640 27 266 12.9 20.9 0.00 0.00 0.00 33 1003.4
20260506142541 27 227 14.5 20.9 0.00 0.00 0.00 33 1003.4
20260506142442 27 227 16.1 25.7 0.00 0.00 0.00 32 1003.4
20260506142339 27 277 16.1 25.7 0.00 0.00 0.00 32 1003.4
20260506142241 27 247 12.9 25.7 0.00 0.00 0.00 33 1003.5
20260506142143 27 245 8.0 25.7 0.00 0.00 0.00 34 1003.4
20260506142044 27 202 8.0 25.7 0.00 0.00 0.00 33 1003.5
20260506142015 27 254 6.4 25.7 0.00 0.00 0.00 32 1002.4
20260506141937 27 214 11.3 25.7 0.00 0.00 0.00 32 1003.5
20260506141818 27 213 12.9 25.7 0.00 0.00 0.00 33 1003.5
20260506141724 27 251 16.1 25.7 0.00 0.00 0.00 33 1003.5
20260506141627 27 212 14.5 25.7 0.00 0.00 0.00 33 1003.5
20260506141554 27 244 11.3 22.5 0.00 0.00 0.00 34 1002.5
20260506141517 27 261 9.7 19.3 0.00 0.00 0.00 34 1003.6
20260506141419 27 201 9.7 19.3 0.00 0.00 0.00 34 1003.6
20260506141321 27 222 9.7 19.3 0.00 0.00 0.00 34 1003.6
20260506141156 27 228 4.8 16.1 0.00 0.00 0.00 34 1003.6
20260506141127 26 213 3.2 16.1 0.00 0.00 0.00 33 1002.5
20260506141048 27 199 3.2 16.1 0.00 0.00 0.00 33 1003.5
20260506140955 27 189 4.8 16.1 0.00 0.00 0.00 34 1003.5
20260506140836 27 215 9.7 16.1 0.00 0.00 0.00 34 1003.6
20260506140739 26 213 12.9 16.1 0.00 0.00 0.00 34 1003.6
20260506140633 26 197 9.7 17.7 0.00 0.00 0.00 35 1003.6
20260506140534 26 231 6.4 12.9 0.00 0.00 0.00 33 1003.6
20260506140436 26 216 4.8 11.3 0.00 0.00 0.00 34 1003.7
20260506140343 26 198 4.8 16.1 0.00 0.00 0.00 34 1003.6
20260506140214 26 225 1.6 16.1 0.00 0.00 0.00 34 1003.6
20260506140118 26 232 0.0 16.1 0.00 0.00 0.00 34 1003.6
20260506135957 26 232 1.6 22.5 0.00 0.00 0.00 34 1003.6
20260506135859 26 232 4.8 22.5 0.00 0.00 0.00 36 1003.7
20260506135731 26 244 8.0 24.1 0.00 0.00 0.00 34 1003.7
20260506135610 26 218 11.3 32.2 0.00 0.00 0.00 34 1003.6
20260506135512 26 268 12.9 32.2 0.00 0.00 0.00 34 1003.6
20260506135416 26 268 12.9 32.2 0.00 0.00 0.00 36 1003.6
20260506135310 26 280 14.5 32.2 0.00 0.00 0.00 35 1003.6
20260506135211 26 280 16.1 32.2 0.00 0.00 0.00 35 1003.6
20260506135115 26 272 17.7 32.2 0.00 0.00 0.00 34 1003.7
20260506135015 26 292 17.7 32.2 0.00 0.00 0.00 34 1003.7
20260506134913 27 258 19.3 32.2 0.00 0.00 0.00 35 1003.6
20260506134754 27 255 22.5 32.2 0.00 0.00 0.00 34 1003.6
20260506134636 27 273 17.7 25.7 0.00 0.00 0.00 34 1003.7
20260506134536 27 256 16.1 24.1 0.00 0.00 0.00 35 1003.7
20260506134409 27 272 17.7 24.1 0.00 0.00 0.00 34 1003.7
20260506134312 27 243 17.7 24.1 0.00 0.00 0.00 35 1003.8
20260506134214 27 236 14.5 24.1 0.00 0.00 0.00 36 1003.8
20260506134120 27 241 14.5 19.3 0.00 0.00 0.00 33 1003.8
20260506134028 27 249 12.9 22.5 0.00 0.00 0.00 33 1002.7
20260506133952 27 273 12.9 22.5 0.00 0.00 0.00 34 1003.8
20260506133855 27 245 9.7 22.5 0.00 0.00 0.00 34 1003.8
20260506133758 27 216 8.0 22.5 0.00 0.00 0.00 35 1003.8
20260506133701 27 221 11.3 22.5 0.00 0.00 0.00 35 1003.8
20260506133611 27 211 9.7 22.5 0.00 0.00 0.00 35 1002.7
20260506133531 27 249 11.3 22.5 0.00 0.00 0.00 34 1003.7
20260506133439 27 237 11.3 22.5 0.00 0.00 0.00 34 1003.8
20260506133341 27 258 16.1 22.5 0.00 0.00 0.00 33 1003.8
20260506133244 27 268 14.5 22.5 0.00 0.00 0.00 33 1003.8
20260506133136 27 261 12.9 19.3 0.00 0.00 0.00 33 1003.7
20260506133038 27 310 11.3 19.3 0.00 0.00 0.00 33 1003.9
20260506132940 27 253 8.0 19.3 0.00 0.00 0.00 33 1003.9
20260506132843 27 253 4.8 16.1 0.00 0.00 0.00 34 1003.9
20260506132739 27 228 4.8 16.1 0.00 0.00 0.00 34 1004.0
20260506132641 27 245 4.8 16.1 0.00 0.00 0.00 34 1003.9
20260506132542 27 322 6.4 16.1 0.00 0.00 0.00 34 1004.0
20260506132445 27 209 8.0 16.1 0.00 0.00 0.00 34 1004.0
20260506132339 27 234 9.7 16.1 0.00 0.00 0.00 35 1004.1
20260506132048 27 160 3.2 12.9 0.00 0.00 0.00 35 1004.0
20260506131955 27 195 6.4 12.9 0.00 0.00 0.00 35 1004.0
20260506131847 26 132 8.0 12.9 0.00 0.00 0.00 34 1004.0
20260506131748 26 203 6.4 12.9 0.00 0.00 0.00 36 1004.1
20260506131651 26 80 6.4 12.9 0.00 0.00 0.00 38 1004.0
20260506131618 26 178 4.8 12.9 0.00 0.00 0.00 38 1002.9
20260506131542 26 219 6.4 14.5 0.00 0.00 0.00 35 1004.1
20260506131446 26 180 8.0 16.1 0.00 0.00 0.00 35 1004.1
20260506131332 26 186 6.4 17.7 0.00 0.00 0.00 35 1004.1
20260506131224 26 153 8.0 19.3 0.00 0.00 0.00 34 1004.1
20260506131128 26 139 6.4 19.3 0.00 0.00 0.00 35 1004.1
20260506131029 26 221 8.0 19.3 0.00 0.00 0.00 35 1004.1
20260506130930 26 224 9.7 19.3 0.00 0.00 0.00 35 1004.1
20260506130802 26 225 11.3 19.3 0.00 0.00 0.00 34 1004.1
20260506130648 26 224 12.9 19.3 0.00 0.00 0.00 35 1004.1
20260506130547 26 222 12.9 19.3 0.00 0.00 0.00 35 1004.1
20260506130449 26 215 12.9 19.3 0.00 0.00 0.00 35 1004.1
20260506130343 26 231 12.9 20.9 0.00 0.00 0.00 36 1004.1
20260506130246 26 234 9.7 17.7 0.00 0.00 0.00 35 1004.0
20260506130149 26 259 3.2 17.7 0.00 0.00 0.00 35 1002.9
20260506130040 27 230 4.8 17.7 0.00 0.00 0.00 34 1004.0
20260506125947 27 248 6.4 17.7 0.00 0.00 0.00 33 1004.1
20260506125851 27 275 8.0 17.7 0.00 0.00 0.00 34 1004.1
20260506125754 27 222 8.0 16.1 0.00 0.00 0.00 34 1004.1
20260506125647 27 218 9.7 16.1 0.00 0.00 0.00 35 1004.2
20260506125550 27 222 8.0 19.3 0.00 0.00 0.00 36 1004.1
20260506125433 26 268 1.6 22.5 0.00 0.00 0.00 34 1004.2
20260506125341 26 250 0.0 22.5 0.00 0.00 0.00 34 1004.1
20260506125232 26 250 3.2 22.5 0.00 0.00 0.00 33 1004.1
20260506125135 26 250 6.4 22.5 0.00 0.00 0.00 33 1004.1
20260506125036 26 250 9.7 22.5 0.00 0.00 0.00 34 1004.2
20260506125004 26 256 9.7 22.5 0.00 0.00 0.00 34 1003.1
20260506124800 26 255 14.5 22.5 0.00 0.00 0.00 33 1004.2
20260506124703 26 272 11.3 17.7 0.00 0.00 0.00 35 1004.2
20260506124547 26 228 8.0 16.1 0.00 0.00 0.00 33 1004.2
20260506124521 26 123 8.0 16.1 0.00 0.00 0.00 33 1003.2
20260506124441 26 122 8.0 16.1 0.00 0.00 0.00 33 1004.4
20260506124345 26 276 6.4 16.1 0.00 0.00 0.00 34 1004.3
20260506124249 26 199 6.4 16.1 0.00 0.00 0.00 35 1004.3
20260506124130 26 208 8.0 16.1 0.00 0.00 0.00 34 1004.3
20260506124105 26 218 8.0 16.1 0.00 0.00 0.00 35 1003.2
20260506124021 26 219 11.3 19.3 0.00 0.00 0.00 34 1004.3
20260506123845 26 247 14.5 19.3 0.00 0.00 0.00 34 1004.3
20260506123748 27 224 14.5 19.3 0.00 0.00 0.00 35 1004.2
20260506123651 27 253 9.7 19.3 0.00 0.00 0.00 36 1004.3
20260506123626 26 248 8.0 19.3 0.00 0.00 0.00 36 1003.3
20260506123522 27 203 11.3 19.3 0.00 0.00 0.00 36 1004.3
20260506123424 26 230 11.3 19.3 0.00 0.00 0.00 37 1004.4
20260506123328 26 227 12.9 19.3 0.00 0.00 0.00 36 1004.3
20260506123158 26 220 16.1 19.3 0.00 0.00 0.00 36 1004.4
20260506123104 26 226 14.5 20.9 0.00 0.00 0.00 37 1004.4
20260506122944 26 245 11.3 20.9 0.00 0.00 0.00 36 1004.4
20260506122846 26 253 11.3 20.9 0.00 0.00 0.00 36 1004.4
20260506122750 26 274 11.3 20.9 0.00 0.00 0.00 35 1004.4
20260506122643 26 263 14.5 20.9 0.00 0.00 0.00 33 1004.4
20260506122522 26 272 16.1 20.9 0.00 0.00 0.00 34 1004.4
20260506122429 26 257 9.7 19.3 0.00 0.00 0.00 34 1004.3
20260506122332 26 315 6.4 19.3 0.00 0.00 0.00 34 1004.4
20260506122202 26 304 8.0 19.3 0.00 0.00 0.00 35 1004.3
20260506122105 26 232 4.8 19.3 0.00 0.00 0.00 36 1004.4
20260506122006 26 218 3.2 19.3 0.00 0.00 0.00 36 1004.4
20260506121907 26 214 6.4 19.3 0.00 0.00 0.00 35 1004.5
20260506121800 26 261 9.7 19.3 0.00 0.00 0.00 34 1004.6
20260506121707 26 149 11.3 19.3 0.00 0.00 0.00 34 1004.6
20260506121610 26 135 11.3 19.3 0.00 0.00 0.00 34 1004.5
20260506121510 26 101 6.4 14.5 0.00 0.00 0.00 34 1004.4
20260506121413 26 128 1.6 14.5 0.00 0.00 0.00 34 1004.6
20260506121246 26 178 3.2 14.5 0.00 0.00 0.00 34 1004.6
20260506121148 26 176 6.4 14.5 0.00 0.00 0.00 33 1004.7
20260506121053 26 159 6.4 14.5 0.00 0.00 0.00 33 1004.7
20260506120956 26 244 6.4 14.5 0.00 0.00 0.00 33 1004.7
20260506120849 26 226 6.4 14.5 0.00 0.00 0.00 36 1004.7
20260506120730 26 238 8.0 14.5 0.00 0.00 0.00 36 1004.7
20260506120633 26 226 9.7 16.1 0.00 0.00 0.00 37 1004.7
20260506120550 26 207 9.7 16.1 0.00 0.00 0.00 37 1003.6
20260506120502 26 224 11.3 16.1 0.00 0.00 0.00 36 1004.6
20260506120408 26 275 8.0 12.9 0.00 0.00 0.00 35 1004.5
20260506120311 26 256 4.8 11.3 0.00 0.00 0.00 38 1004.5
20260506120211 26 290 3.2 8.0 0.00 0.00 0.00 36 1004.5
20260506120149 26 272 3.2 8.0 0.00 0.00 0.00 35 1003.5
20260506120104 26 280 3.2 8.0 0.00 0.00 0.00 34 1004.6
20260506115943 26 280 4.8 8.0 0.00 0.00 0.00 34 1004.6
20260506115707 26 222 1.6 16.1 0.00 0.00 0.00 33 1004.6
20260506115615 26 222 1.6 16.1 0.00 0.00 0.00 34 1004.6
20260506115517 26 222 3.2 16.1 0.00 0.00 0.00 36 1004.6
20260506115420 26 222 3.2 16.1 0.00 0.00 0.00 35 1004.6
20260506115314 26 222 3.2 16.1 0.00 0.00 0.00 38 1004.6
20260506115152 26 234 4.8 16.1 0.00 0.00 0.00 36 1004.7
20260506115053 26 246 6.4 16.1 0.00 0.00 0.00 36 1004.6
20260506114957 26 224 9.7 16.1 0.00 0.00 0.00 36 1004.6
20260506114842 26 236 11.3 16.1 0.00 0.00 0.00 36 1004.6
20260506114737 26 238 11.3 14.5 0.00 0.00 0.00 35 1004.6
20260506114641 26 263 8.0 12.9 0.00 0.00 0.00 35 1004.6
20260506114541 26 263 3.2 8.0 0.00 0.00 0.00 35 1004.6
20260506114445 26 340 1.6 19.3 0.00 0.00 0.00 35 1004.6
20260506114338 26 340 3.2 24.1 0.00 0.00 0.00 34 1004.6
20260506114223 26 123 3.2 24.1 0.00 0.00 0.00 34 1004.6
20260506114125 26 126 3.2 24.1 0.00 0.00 0.00 33 1004.7
20260506114048 26 126 1.6 24.1 0.00 0.00 0.00 33 1003.6
20260506113955 26 184 1.6 24.1 0.00 0.00 0.00 34 1004.7
20260506113855 26 268 1.6 24.1 0.00 0.00 0.00 34 1004.6
20260506113759 26 268 8.0 24.1 0.00 0.00 0.00 33 1004.7
20260506113701 27 274 16.1 24.1 0.00 0.00 0.00 33 1004.6
20260506113629 26 278 16.1 24.1 0.00 0.00 0.00 33 1003.6
20260506113537 27 259 12.9 24.1 0.00 0.00 0.00 34 1004.6
20260506113440 27 251 9.7 22.5 0.00 0.00 0.00 34 1004.6
20260506113342 27 238 14.5 22.5 0.00 0.00 0.00 33 1004.6
20260506113234 27 266 14.5 22.5 0.00 0.00 0.00 32 1004.6
20260506113136 27 240 16.1 22.5 0.00 0.00 0.00 33 1004.6
20260506113016 27 272 17.7 22.5 0.00 0.00 0.00 34 1004.6
20260506112908 27 297 16.1 22.5 0.00 0.00 0.00 32 1004.5
20260506112814 27 320 11.3 22.5 0.00 0.00 0.00 30 1004.4
20260506112717 27 32 8.0 16.1 0.00 0.00 0.00 31 1004.5
20260506112619 27 57 6.4 12.9 0.00 0.00 0.00 30 1004.6
20260506112543 27 91 4.8 12.9 0.00 0.00 0.00 31 1003.6
20260506112510 27 103 1.6 12.9 0.00 0.00 0.00 30 1004.6
20260506112350 27 75 1.6 12.9 0.00 0.00 0.00 30 1004.7
20260506112230 27 75 4.8 14.5 0.00 0.00 0.00 30 1004.7
20260506112128 27 61 3.2 14.5 0.00 0.00 0.00 31 1004.7
20260506112028 27 238 4.8 19.3 0.00 0.00 0.00 32 1004.7
20260506111928 27 238 8.0 19.3 0.00 0.00 0.00 31 1004.8
20260506111812 27 276 8.0 19.3 0.00 0.00 0.00 31 1004.8
20260506111705 27 236 6.4 19.3 0.00 0.00 0.00 32 1004.8
20260506111609 27 234 6.4 19.3 0.00 0.00 0.00 32 1004.8
20260506111512 27 214 8.0 19.3 0.00 0.00 0.00 33 1004.9
20260506111354 27 179 9.7 19.3 0.00 0.00 0.00 32 1004.9
20260506111247 27 265 12.9 19.3 0.00 0.00 0.00 32 1005.0
20260506111128 27 239 12.9 17.7 0.00 0.00 0.00 32 1004.9
20260506111007 27 247 11.3 17.7 0.00 0.00 0.00 33 1005.0
20260506110838 27 253 4.8 16.1 0.00 0.00 0.00 34 1005.0
20260506110618 26 353 1.6 9.7 0.00 0.00 0.00 34 1005.0
20260506110518 26 349 0.0 12.9 0.00 0.00 0.00 33 1005.0
20260506110413 26 349 0.0 12.9 0.00 0.00 0.00 33 1005.0
20260506110315 26 349 3.2 12.9 0.00 0.00 0.00 32 1005.1
20260506110217 26 349 4.8 12.9 0.00 0.00 0.00 32 1005.0
20260506110120 26 353 6.4 16.1 0.00 0.00 0.00 33 1005.0
20260506110057 26 326 4.8 17.7 0.00 0.00 0.00 32 1003.9
20260506110012 26 33 6.4 17.7 0.00 0.00 0.00 32 1005.0
20260506105919 26 294 4.8 17.7 0.00 0.00 0.00 33 1005.1
20260506105822 27 289 4.8 17.7 0.00 0.00 0.00 33 1005.1
20260506105723 27 289 6.4 17.7 0.00 0.00 0.00 32 1005.2
20260506105656 26 289 6.4 17.7 0.00 0.00 0.00 34 1004.1
20260506105553 27 249 6.4 17.7 0.00 0.00 0.00 33 1005.1
20260506105456 27 257 8.0 17.7 0.00 0.00 0.00 33 1005.2
20260506105359 27 294 11.3 17.7 0.00 0.00 0.00 34 1005.1
20260506105305 27 272 9.7 17.7 0.00 0.00 0.00 34 1005.1
20260506105155 26 186 8.0 14.5 0.00 0.00 0.00 35 1005.2
20260506105054 26 195 4.8 12.9 0.00 0.00 0.00 35 1005.2
20260506104956 26 107 3.2 12.9 0.00 0.00 0.00 36 1005.2
20260506104857 26 219 3.2 12.9 0.00 0.00 0.00 36 1005.3
20260506104730 26 219 6.4 17.7 0.00 0.00 0.00 38 1005.3
20260506104637 26 218 8.0 17.7 0.00 0.00 0.00 39 1005.3
20260506104600 26 218 6.4 17.7 0.00 0.00 0.00 39 1004.2
20260506104527 26 255 6.4 17.7 0.00 0.00 0.00 37 1005.3
20260506104409 26 239 3.2 17.7 0.00 0.00 0.00 37 1005.4
20260506104311 26 222 3.2 17.7 0.00 0.00 0.00 36 1005.3
20260506104212 26 224 3.2 17.7 0.00 0.00 0.00 37 1005.3
20260506104143 26 224 3.2 17.7 0.00 0.00 0.00 37 1004.3
20260506104041 26 238 9.7 17.7 0.00 0.00 0.00 38 1005.4
20260506103944 26 236 11.3 19.3 0.00 0.00 0.00 38 1005.3
20260506103852 26 250 11.3 17.7 0.00 0.00 0.00 39 1005.4
20260506103734 26 251 12.9 17.7 0.00 0.00 0.00 39 1005.4
20260506103649 25 253 12.9 17.7 0.00 0.00 0.00 39 1004.3
20260506103606 26 243 12.9 17.7 0.00 0.00 0.00 40 1005.4
20260506103504 26 247 8.0 11.3 0.00 0.00 0.00 39 1005.4
20260506103347 26 284 6.4 9.7 0.00 0.00 0.00 38 1005.4
20260506103236 25 326 6.4 9.7 0.00 0.00 0.00 39 1005.4
20260506103142 25 268 3.2 9.7 0.00 0.00 0.00 39 1005.4
20260506103042 25 331 3.2 9.7 0.00 0.00 0.00 36 1005.4
20260506102945 25 331 1.6 9.7 0.00 0.00 0.00 36 1005.4
20260506102848 25 327 1.6 9.7 0.00 0.00 0.00 37 1005.4
20260506102742 25 85 4.8 9.7 0.00 0.00 0.00 37 1005.4
20260506102644 25 85 6.4 9.7 0.00 0.00 0.00 39 1005.4
20260506102531 25 70 3.2 9.7 0.00 0.00 0.00 39 1005.4
20260506102508 25 99 1.6 11.3 0.00 0.00 0.00 41 1004.3
20260506102423 25 24 1.6 11.3 0.00 0.00 0.00 41 1005.4
20260506102325 25 82 3.2 11.3 0.00 0.00 0.00 41 1005.5
20260506102227 25 67 3.2 11.3 0.00 0.00 0.00 41 1005.5
20260506102159 25 337 3.2 11.3 0.00 0.00 0.00 41 1004.4
20260506102121 25 57 4.8 11.3 0.00 0.00 0.00 41 1005.6
20260506102022 25 55 3.2 12.9 0.00 0.00 0.00 42 1005.6
20260506101904 25 16 4.8 12.9 0.00 0.00 0.00 42 1005.7
20260506101811 25 42 4.8 12.9 0.00 0.00 0.00 43 1005.8
20260506101705 25 153 4.8 12.9 0.00 0.00 0.00 41 1005.7
20260506101606 25 115 4.8 14.5 0.00 0.00 0.00 41 1005.8
20260506101505 25 107 6.4 14.5 0.00 0.00 0.00 41 1005.8
20260506101408 25 93 6.4 14.5 0.00 0.00 0.00 42 1005.7
20260506101303 25 72 6.4 14.5 0.00 0.00 0.00 42 1005.7
20260506101210 25 119 4.8 14.5 0.00 0.00 0.00 41 1005.7
20260506101111 25 95 4.8 14.5 0.00 0.00 0.00 41 1005.7
20260506101011 25 101 6.4 14.5 0.00 0.00 0.00 41 1005.7
20260506100904 25 52 6.4 14.5 0.00 0.00 0.00 42 1005.8
20260506100807 25 102 3.2 14.5 0.00 0.00 0.00 44 1005.8
20260506100649 25 120 3.2 9.7 0.00 0.00 0.00 42 1005.8
20260506100550 25 82 3.2 12.9 0.00 0.00 0.00 41 1005.8
20260506100528 24 82 1.6 12.9 0.00 0.00 0.00 42 1004.7
20260506100448 25 69 3.2 12.9 0.00 0.00 0.00 44 1005.9
20260506100329 25 114 6.4 12.9 0.00 0.00 0.00 43 1005.9
20260506100231 25 105 8.0 14.5 0.00 0.00 0.00 43 1005.9
20260506100111 25 91 6.4 20.9 0.00 0.00 0.00 42 1005.9
20260506100003 25 66 4.8 20.9 0.00 0.00 0.00 42 1005.9
20260506095737 24 94 8.0 20.9 0.00 0.00 0.00 45 1006.0
20260506095645 24 95 8.0 20.9 0.00 0.00 0.00 45 1006.0
20260506095618 24 70 8.0 20.9 0.00 0.00 0.00 45 1004.9
20260506095536 24 92 9.7 20.9 0.00 0.00 0.00 45 1006.0
20260506095438 24 109 11.3 20.9 0.00 0.00 0.00 44 1006.0
20260506095341 24 94 12.9 20.9 0.00 0.00 0.00 45 1006.1
20260506095233 24 93 12.9 20.9 0.00 0.00 0.00 45 1006.0
20260506095136 24 57 11.3 19.3 0.00 0.00 0.00 47 1006.1
20260506095041 24 117 9.7 19.3 0.00 0.00 0.00 47 1006.0
20260506094923 24 103 9.7 22.5 0.00 0.00 0.00 45 1006.0
20260506094816 24 344 8.0 22.5 0.00 0.00 0.00 45 1006.0
20260506094719 24 89 9.7 22.5 0.00 0.00 0.00 45 1006.1
20260506094619 24 58 11.3 22.5 0.00 0.00 0.00 47 1006.1
20260506094501 24 74 9.7 22.5 0.00 0.00 0.00 46 1006.1
20260506094335 24 110 11.3 22.5 0.00 0.00 0.00 45 1006.1
20260506094219 24 70 14.5 22.5 0.00 0.00 0.00 46 1006.2
20260506094119 24 112 16.1 22.5 0.00 0.00 0.00 47 1006.2
20260506094001 24 94 14.5 22.5 0.00 0.00 0.00 47 1006.2
20260506093832 24 78 9.7 19.3 0.00 0.00 0.00 47 1006.3
20260506093735 23 110 6.4 19.3 0.00 0.00 0.00 48 1006.3
20260506093639 23 39 8.0 19.3 0.00 0.00 0.00 47 1006.3
20260506093544 23 85 11.3 19.3 0.00 0.00 0.00 48 1006.4
20260506093447 23 80 9.7 19.3 0.00 0.00 0.00 47 1006.4
20260506093342 23 70 9.7 19.3 0.00 0.00 0.00 48 1006.4
20260506093243 23 106 12.9 19.3 0.00 0.00 0.00 48 1006.4
20260506093146 23 82 12.9 19.3 0.00 0.00 0.00 49 1006.5
20260506093047 23 111 12.9 19.3 0.00 0.00 0.00 48 1006.5
20260506093031 23 47 11.3 19.3 0.00 0.00 0.00 48 1005.4
20260506092942 23 88 11.3 22.5 0.00 0.00 0.00 48 1006.5
20260506092827 23 55 11.3 22.5 0.00 0.00 0.00 48 1006.5
20260506092731 23 109 11.3 22.5 0.00 0.00 0.00 48 1006.5
20260506092650 23 89 9.7 22.5 0.00 0.00 0.00 49 1005.5
20260506092433 23 55 6.4 22.5 0.00 0.00 0.00 50 1006.5
20260506092334 23 101 8.0 24.1 0.00 0.00 0.00 51 1006.6
20260506092227 23 68 12.9 24.1 0.00 0.00 0.00 50 1006.6
20260506092114 23 116 16.1 24.1 0.00 0.00 0.00 50 1006.6
20260506092015 23 74 12.9 24.1 0.00 0.00 0.00 49 1006.6
20260506091916 23 105 12.9 24.1 0.00 0.00 0.00 49 1006.6
20260506091810 23 95 12.9 24.1 0.00 0.00 0.00 50 1006.6
20260506091712 23 88 14.5 24.1 0.00 0.00 0.00 49 1006.7
20260506091612 23 102 14.5 24.1 0.00 0.00 0.00 50 1006.6
20260506091454 23 78 12.9 20.9 0.00 0.00 0.00 52 1006.6
20260506091331 23 117 14.5 19.3 0.00 0.00 0.00 50 1006.8
20260506091234 23 104 12.9 19.3 0.00 0.00 0.00 52 1006.7
20260506091138 23 89 6.4 19.3 0.00 0.00 0.00 51 1006.7
20260506091053 22 105 4.8 19.3 0.00 0.00 0.00 50 1005.7
20260506091008 23 55 8.0 19.3 0.00 0.00 0.00 50 1006.8
20260506090908 23 54 11.3 19.3 0.00 0.00 0.00 50 1006.8
20260506090809 23 71 11.3 19.3 0.00 0.00 0.00 50 1006.8
20260506090717 23 72 8.0 17.7 0.00 0.00 0.00 50 1006.9
20260506090652 22 68 6.4 17.7 0.00 0.00 0.00 50 1005.9
20260506090607 23 89 6.4 22.5 0.00 0.00 0.00 51 1006.9
20260506090428 23 84 9.7 22.5 0.00 0.00 0.00 50 1007.0
20260506090330 23 101 11.3 22.5 0.00 0.00 0.00 50 1006.9
20260506090213 23 72 12.9 22.5 0.00 0.00 0.00 51 1007.0
20260506090150 22 101 11.3 22.5 0.00 0.00 0.00 51 1005.9
20260506090104 23 103 11.3 22.5 0.00 0.00 0.00 51 1007.0
20260506090010 23 102 8.0 22.5 0.00 0.00 0.00 51 1006.9
20260506085914 23 68 11.3 22.5 0.00 0.00 0.00 50 1006.9
20260506085818 23 97 11.3 22.5 0.00 0.00 0.00 51 1006.9
20260506085712 22 108 11.3 17.7 0.00 0.00 0.00 52 1006.8
20260506085615 22 70 11.3 17.7 0.00 0.00 0.00 52 1006.9
20260506085517 22 92 8.0 16.1 0.00 0.00 0.00 53 1006.9
20260506085349 22 95 8.0 16.1 0.00 0.00 0.00 52 1007.0
20260506085257 22 54 8.0 16.1 0.00 0.00 0.00 52 1007.0
20260506085158 22 105 9.7 16.1 0.00 0.00 0.00 51 1007.0
20260506084921 22 106 6.4 12.9 0.00 0.00 0.00 52 1007.2
20260506084801 22 87 6.4 12.9 0.00 0.00 0.00 52 1007.2
20260506084704 22 53 4.8 12.9 0.00 0.00 0.00 53 1007.2
20260506084606 22 96 4.8 12.9 0.00 0.00 0.00 52 1007.1
20260506084549 22 85 4.8 12.9 0.00 0.00 0.00 52 1006.1
20260506084503 22 88 6.4 12.9 0.00 0.00 0.00 51 1007.1
20260506084405 22 71 8.0 12.9 0.00 0.00 0.00 51 1007.2
20260506084303 22 86 8.0 16.1 0.00 0.00 0.00 52 1007.2
20260506084204 22 95 4.8 16.1 0.00 0.00 0.00 53 1007.2
20260506084114 22 53 3.2 16.1 0.00 0.00 0.00 53 1006.1
20260506084035 22 72 1.6 16.1 0.00 0.00 0.00 52 1007.2
20260506083937 22 355 3.2 16.1 0.00 0.00 0.00 52 1007.2
20260506083844 22 47 6.4 16.1 0.00 0.00 0.00 52 1007.3
20260506083725 22 58 9.7 16.1 0.00 0.00 0.00 52 1007.3
20260506083633 22 109 9.7 16.1 0.00 0.00 0.00 52 1006.1
20260506083556 22 86 11.3 16.1 0.00 0.00 0.00 52 1007.3
20260506083437 22 92 8.0 16.1 0.00 0.00 0.00 53 1007.3
20260506083340 22 81 4.8 14.5 0.00 0.00 0.00 52 1007.3
20260506083220 22 34 8.0 14.5 0.00 0.00 0.00 52 1007.3
20260506083152 22 80 8.0 14.5 0.00 0.00 0.00 52 1006.2
20260506083116 22 82 8.0 14.5 0.00 0.00 0.00 52 1007.3
20260506083020 22 81 8.0 12.9 0.00 0.00 0.00 53 1007.3
20260506082900 22 94 6.4 12.9 0.00 0.00 0.00 53 1007.3
20260506082802 22 82 4.8 11.3 0.00 0.00 0.00 53 1007.3
20260506082655 22 103 3.2 11.3 0.00 0.00 0.00 53 1007.3
20260506082555 22 94 3.2 11.3 0.00 0.00 0.00 53 1007.3
20260506082458 22 94 3.2 11.3 0.00 0.00 0.00 53 1007.3
20260506082404 22 94 4.8 11.3 0.00 0.00 0.00 54 1007.3
20260506082309 22 99 4.8 11.3 0.00 0.00 0.00 53 1007.3
20260506082157 22 52 6.4 11.3 0.00 0.00 0.00 53 1007.3
20260506082058 22 93 4.8 11.3 0.00 0.00 0.00 54 1007.3
20260506082001 22 109 3.2 8.0 0.00 0.00 0.00 53 1007.4
20260506081905 22 105 1.6 8.0 0.00 0.00 0.00 54 1007.4
20260506081735 22 105 1.6 12.9 0.00 0.00 0.00 54 1007.4
20260506081641 22 105 3.2 12.9 0.00 0.00 0.00 53 1007.4
20260506081542 22 105 3.2 12.9 0.00 0.00 0.00 54 1007.4
20260506081508 22 79 1.6 12.9 0.00 0.00 0.00 55 1006.3
20260506081436 22 99 0.0 12.9 0.00 0.00 0.00 55 1007.4
20260506081318 22 99 1.6 12.9 0.00 0.00 0.00 55 1007.4
20260506081219 22 99 3.2 12.9 0.00 0.00 0.00 54 1007.4
20260506081057 22 93 6.4 12.9 0.00 0.00 0.00 54 1007.4
20260506081003 22 109 6.4 12.9 0.00 0.00 0.00 55 1007.4
20260506080857 22 88 4.8 9.7 0.00 0.00 0.00 56 1007.4
20260506080800 22 59 4.8 9.7 0.00 0.00 0.00 55 1007.4
20260506080702 22 49 3.2 9.7 0.00 0.00 0.00 57 1007.4
20260506080626 21 82 1.6 8.0 0.00 0.00 0.00 57 1006.3
20260506080554 22 349 1.6 6.4 0.00 0.00 0.00 57 1007.4
20260506080436 21 356 0.0 6.4 0.00 0.00 0.00 58 1007.4
20260506080338 21 72 1.6 6.4 0.00 0.00 0.00 58 1007.5
20260506080245 21 95 1.6 6.4 0.00 0.00 0.00 57 1007.5
20260506080146 21 95 1.6 6.4 0.00 0.00 0.00 58 1007.5
20260506080119 21 27 0.0 4.8 0.00 0.00 0.00 58 1006.4
20260506073455 20 6 0.0 8.0 0.00 0.00 0.00 65 1008.0
20260506073357 20 6 1.6 8.0 0.00 0.00 0.00 65 1008.0
20260506073306 20 6 1.6 8.0 0.00 0.00 0.00 63 1008.0
20260506073153 20 50 1.6 8.0 0.00 0.00 0.00 64 1008.0
20260506073032 19 53 3.2 8.0 0.00 0.00 0.00 64 1007.9
20260506072936 19 62 3.2 8.0 0.00 0.00 0.00 64 1008.0
20260506072807 19 6 4.8 8.0 0.00 0.00 0.00 65 1008.0
20260506072709 19 351 4.8 8.0 0.00 0.00 0.00 64 1008.1
20260506072615 19 309 4.8 8.0 0.00 0.00 0.00 64 1008.1
20260506072508 19 309 3.2 8.0 0.00 0.00 0.00 64 1008.1
20260506072410 18 309 3.2 8.0 0.00 0.00 0.00 65 1008.1
20260506072305 18 276 3.2 8.0 0.00 0.00 0.00 66 1008.2
20260506072147 18 272 3.2 8.0 0.00 0.00 0.00 65 1008.2
20260506072046 18 279 3.2 8.0 0.00 0.00 0.00 65 1008.2
20260506071949 18 279 4.8 8.0 0.00 0.00 0.00 65 1008.2
20260506071847 18 261 3.2 8.0 0.00 0.00 0.00 66 1008.2
20260506071728 18 314 3.2 8.0 0.00 0.00 0.00 66 1008.2
20260506071610 18 344 4.8 8.0 0.00 0.00 0.00 66 1008.2
20260506071512 18 320 4.8 8.0 0.00 0.00 0.00 66 1008.2
20260506071405 18 315 4.8 11.3 0.00 0.00 0.00 67 1008.2
20260506071308 18 336 4.8 11.3 0.00 0.00 0.00 67 1008.2
20260506071133 18 315 4.8 11.3 0.00 0.00 0.00 67 1008.3
20260506071106 18 311 3.2 11.3 0.00 0.00 0.00 67 1007.2
20260506071023 18 297 4.8 11.3 0.00 0.00 0.00 68 1008.3
20260506070758 18 285 6.4 11.3 0.00 0.00 0.00 68 1008.3
20260506070652 18 262 6.4 11.3 0.00 0.00 0.00 68 1008.3
20260506070532 18 259 6.4 11.3 0.00 0.00 0.00 68 1008.3
20260506070434 18 299 6.4 11.3 0.00 0.00 0.00 68 1008.3
20260506070320 18 299 6.4 11.3 0.00 0.00 0.00 68 1008.4
20260506070213 18 277 6.4 11.3 0.00 0.00 0.00 68 1008.4
20260506070112 18 316 6.4 8.0 0.00 0.00 0.00 69 1008.4